This site uses a module created by best online poker sites.

BSB police report ending February 21, 2018

"02/20/2018","00:11","218CR0004339","LED CRASH","LED CRASH","300 BLK HATTIE LOOP","",""
"02/20/2018","02:13","218CR0004340","BUSINESS CHECK","BUSINESS CHECK","1370 HARRISON TOWN PUMP","",""
"02/20/2018","02:21","218CR0004341","BUSINESS CHECK","BUSINESS CHECK","2711 HARRISON","",""
"02/20/2018","03:03","218CR0004342","ANIMAL COMPLAINT","ANIMAL COMPLAINT","2100 BLK LOCUST","",""
"02/20/2018","04:13","218CR0004343","SUSPICIOUS ACTIVITY","SUSPICIOUS ACTIVITY","DEWEY AND HARRISON","",""
"02/20/2018","04:27","218CR0004344","SUSPICIOUS ACTIVITY","SUSPICIOUS ACTIVITY","PINION // C STREET","",""
"02/20/2018","04:49","218CR0004345","SUSPICIOUS ACTIVITY","SUSPICIOUS ACTIVITY","1955 OREGON","",""
"02/20/2018","05:02","218CR0004346","DISTURBANCE","CRIMINAL TRESPASS TO PROPERTY","1527 1/2 DELAWARE","ARREST(s) MADE",""
"02/20/2018","05:03","218CR0004347","ALARM - BURGLARY","ALARM - BURGLARY","************","",""
"02/20/2018","05:23","218CR0004348","ACCIDENT","ACCIDENT","617 IRON","",""
"02/20/2018","06:59","218CR0004349","TRAFFIC HAZARD","TRAFFIC HAZARD","MT HIGHLAND // CONTINENTIAL","",""
"02/20/2018","08:00","218CR0004350","ACCIDENT","FOLLOWING TOO CLOSELY","FRONT AND OREGON","",""
"02/20/2018","08:13","218CR0004351","TRAFFIC HAZARD","TRAFFIC HAZARD","1800 BLK HARRISON","",""
"02/20/2018","08:18","218CR0004352","WELFARE CHECK","WELFARE CHECK","205 CALHOUN ST","",""
"02/20/2018","09:05","218CR0004353","CITIZEN AID","CITIZEN AID","225 N ALASAKA","",""
"02/20/2018","09:26","218CR0004354","SUSPICIOUS ACTIVITY","SUSPICIOUS ACTIVITY","1900 BLK GRAND","",""
"02/20/2018","09:45","218CR0004355","ACCIDENT","ACCIDENT","1820 MEADOWLARK","",""
"02/20/2018","10:06","218CR0004356","THEFT","THEFT FROM MOTOR VEHICLE","2825 FARRAGUT APT B203","",""
"02/20/2018","10:21","218CR0004357","FRAUD","FRAUD","3883 HARRISON AVE","",""
"02/20/2018","10:26","218CR0004358","LOST CHILD","LOST CHILD","************","",""
"02/20/2018","10:39","218CR0004359","ISSUING BAD CHECKS","ISSUING BAD CHECKS","1810 MEADOWLARK LANE","",""
"02/20/2018","10:55","218CR0004360","ACCIDENT","ACCIDENT","1941 HARRISON AVE","",""
"02/20/2018","10:55","218CR0004361","DETENTION BUSINESS","DETENTION BUSINESS","************","",""
"02/20/2018","11:13","218CR0004362","CIVIL PAPER SERVICE","CIVIL PAPER SERVICE","201 HOBSON #9","",""
"02/20/2018","11:23","218CR0004364","CIVIL PAPER SERVICE","CIVIL PAPER SERVICE","525 E MERCURY","",""
"02/20/2018","11:37","218CR0004365","ANIMAL COMPLAINT","ANIMAL COMPLAINT","COBBAN ST AND UTAH AVE","",""
"02/20/2018","11:51","218CR0004366","ACCIDENT","ACCIDENT","2505 KOSSUTH ST","",""
"02/20/2018","12:07","218CR0004367","SNOW REMOVAL COMPLAINT","SNOW REMOVAL COMPLAINT","COBBAN AND THOMAS","",""
"02/20/2018","12:19","218CR0004369","ASSIST OTHER AGENCY","ASSIST OTHER AGENCY","I90 MM 215 EB","",""
"02/20/2018","12:31","218CR0004370","ABANDONED VEHICLE","ABANDONED VEHICLE","500 S MAIN ST","",""
"02/20/2018","12:35","218CR0004371","HARASSMENT","HARASSMENT","1125 S MAIN ST","",""
"02/20/2018","12:38","218CR0004372","ASSIST OTHER AGENCY","ASSIST OTHER AGENCY","I90 MM 215 EB","",""
"02/20/2018","12:48","218CR0004373","CITIZEN AID","CITIZEN AID","HOMES AND ROWE RD","",""
"02/20/2018","13:54","218CR0004374","CIVIL PAPER SERVICE","CIVIL PAPER SERVICE","201 HOBSON #11","",""
"02/20/2018","14:03","218CR0004375","T/S","T/S","CONTINENTAL DR AND ST ANN ST","",""
"02/20/2018","14:49","218CR0004376","THEFT","THEFT","800 E FRONT ST/FRONT ST STATIO","",""
"02/20/2018","14:53","218CR0004378","T/S","NO LIABILITY INSURANCE IN EFF.","PORPHYRY ST AND MONTANA ST","",""
"02/20/2018","15:10","218CR0004379","DETENTION BUSINESS","DETENTION BUSINESS","************","",""
"02/20/2018","15:42","218CR0004380","MEDICAL - EMERGENCY","MEDICAL - EMERGENCY","1818 THORNTON","",""
"02/20/2018","15:49","218CR0004381","JUVENILE RUNAWAY","JUVENILE RUNAWAY","************","",""
"02/20/2018","16:00","218CR0004382","PARKING COMPLAINT","PARKING COMPLAINT","","",""
"02/20/2018","16:02","218CR0004383","THEFT","THEFT","1001 EMPIRE ST","",""
"02/20/2018","16:26","218CR0004384","FIRE- GAS ODOR","FIRE- GAS ODOR","731 ZARELDA","",""
"02/20/2018","16:30","218CR0004385","ACCIDENT","ACCIDENT","2324 S MONTANA","",""
"02/20/2018","16:32","218CR0004386","SUSPICIOUS ACTIVITY","SUSPICIOUS ACTIVITY","50 W BROADWAY ST","",""
"02/20/2018","16:38","218CR0004387","WELFARE CHECK","WELFARE CHECK","1205 S MONTANA ST #6","",""
"02/20/2018","16:51","218CR0004388","FRAUD","FRAUD","1509 SCHLEY","",""
"02/20/2018","17:06","218CR0004389","ATL","ATL","CONTINENTAL DR AND TOWER","",""
"02/20/2018","17:22","218CR0004390","HARASSMENT","HARASSMENT","205 W GRANITE #306","",""
"02/20/2018","18:08","218CR0004391","ALL OTHER","ALL OTHER","2501 PARROT ST","",""
"02/20/2018","18:17","218CR0004392","FIRE - VEHICLE","FIRE - VEHICLE","I90 MM 219 WBND","",""
"02/20/2018","18:28","218CR0004393","ALARM - BURGLARY","ALARM - BURGLARY","************","",""
"02/20/2018","19:00","218CR0004394","THEFT","THEFT, ALL OTHERS","314 W BROADWAY","",""
"02/20/2018","19:10","218CR0004395","ALL OTHER","ALL OTHER","105 RAMPART DR #104","",""
"02/20/2018","19:32","218CR0004396","ASSAULT","ASSAULT","************","",""
"02/20/2018","19:34","218CR0004397","ALARM - BURGLARY","ALARM - BURGLARY","************","",""
"02/20/2018","20:14","218CR0004398","T/S","CRIMINAL CONTEMPT","PLATINUM AND CLARK","ARREST(s) MADE",""
"02/20/2018","20:25","218CR0004399","DISTURBANCE","DISTURBANCE","1911 PORTER","",""
"02/20/2018","20:54","218CR0004400","TRAFFIC HAZARD","TRAFFIC HAZARD","CHULA ST AND ROWE RD","",""
"02/20/2018","21:15","218CR0004401","SUSPICIOUS ACTIVITY","SUSPICIOUS ACTIVITY","118 N IDAHO ST","",""
"02/20/2018","21:22","218CR0004402","INTOXICATED PERSON","INTOXICATED PERSON","304 N MAIN ST","",""
"02/20/2018","21:30","218CR0004403","WELFARE CHECK","WELFARE CHECK","1240 FARRELL","",""
"02/20/2018","21:42","218CR0004404","MEDICAL - EMERGENCY","MEDICAL - EMERGENCY","HOLMES AND WYNNE","",""
"02/20/2018","22:19","218CR0004405","UNWANTED PERSON","UNWANTED PERSON","************","",""
"02/20/2018","22:22","218CR0004406","STOLEN VEHICLE","MOTOR VEHICLE THEFT","1000 S MONTANA COPPERKING SALO","",""
"02/20/2018","23:24","218CR0004407","ALL OTHER","ALL OTHER","600 BLK W GRANITE","",""
"02/21/2018","00:14","218CR0004408","BUSINESS CHECK","BUSINESS CHECK","3700 HARRISON TOWN PUMP","",""
"02/21/2018","00:32","218CR0004409","BUSINESS CHECK","BUSINESS CHECK","1915 DEWEY LUCKY LILS CASINO","",""
"02/21/2018","00:47","218CR0004410","SUSPICIOUS ACTIVITY","CRIMINAL CONTEMPT","GRAND AND THOMAS","ARREST(s) MADE",""
"02/21/2018","02:07","218CR0004411","BUSINESS CHECK","BUSINESS CHECK","122000 BROWNS GULCH MT LILS","",""
"02/21/2018","07:16","218CR0004413","ALARM - FIRE","ALARM - FIRE","4655 HARRISON AVE","",""
 

BSB police report ending February 20, 2018

"02/16/2018","00:44","218CR0003987","CITIZEN AID","CITIZEN AID","HARRISON AND OTTAWA","",""
"02/16/2018","01:03","218CR0003988","T/S","T/S","PARK AND DAKOTA","",""
"02/16/2018","01:13","218CR0003989","T/S","T/S","GEORGE ST AND MONTANA ST","",""
"02/16/2018","02:02","218CR0003990","T/S","DUI - (REFUSAL)","PARK AND ALABAMA","ARREST(s) MADE",""
"02/16/2018","02:07","218CR0003991","T/S","T/S @ BROADWAY AND ALABAMA","BROADWAY AND ALABAMA","",""
"02/16/2018","03:16","218CR0003992","ATL","ATL","2909 CARTER ST","",""
"02/16/2018","03:22","218CR0003993","HARASSMENT","HARASSMENT","2325 COBBAN","",""
"02/16/2018","05:12","218CR0003994","MEDICAL - EMERGENCY","MEDICAL - EMERGENCY","2700 HARVARD AVE","",""
"02/16/2018","05:49","218CR0003995","THEFT","THEFT","1408 SCHLEY","",""
"02/16/2018","07:49","218CR0003997","CIVIL PAPER SERVICE","CIVIL PAPER SERVICE","62 W BROADWAY","",""
"02/16/2018","07:51","218CR0003998","MEDICAL - ASSIST","MEDICAL - ASSIST","************","",""
"02/16/2018","07:53","218CR0003999","THEFT","THEFT FROM MOTOR VEHICLE","1655 SCHLEY","",""
"02/16/2018","07:59","218CR0004000","ASSIST OTHER AGENCY","ASSIST OTHER AGENCY","301 GRANITE MTN RD","",""
"02/16/2018","08:05","218CR0004001","JUVENILE MISC","JUVENILE MISC","************","",""
"02/16/2018","08:06","218CR0004002","JUVENILE MISC","JUVENILE MISC","************","",""
"02/16/2018","08:07","218CR0004003","HARASSMENT","HARASSMENT","1366 SUNSET","",""
"02/16/2018","08:12","218CR0004004","MEDICAL - EMERGENCY","MEDICAL - EMERGENCY","2101 GAYLORD ST","",""
"02/16/2018","08:19","218CR0004005","TRAFFIC HAZARD","TRAFFIC HAZARD","FARRELL AND THORNTON","",""
"02/16/2018","08:25","218CR0004007","HIT AND RUN","IMMEDIATE NOTIFICATION OF ACC","FRONT AND UTAH","",""
"02/16/2018","08:25","218CR0004006","LED BUSINESS","LED BUSINESS","155 W GRANITE","",""
"02/16/2018","08:46","218CR0004008","WELFARE CHECK","WELFARE CHECK","3000 BLK OTTAWA ST","",""
"02/16/2018","09:01","218CR0004009","HARASSMENT","HARASSMENT","1324 HARRISON","",""
"02/16/2018","09:35","218CR0004010","VANDALISM/CRIMINAL MISCHIEF","VANDALISM/CRIMINAL MISCHIEF","3525 HARRISON AVE","",""
"02/16/2018","10:09","218CR0004012","MEDICAL - EMERGENCY","MEDICAL - EMERGENCY","845 S WYOMING ST","",""
"02/16/2018","10:22","218CR0004013","HARASSMENT","HARASSMENT","2325 COBBAN","",""
"02/16/2018","10:37","218CR0004014","DETENTION BUSINESS","DETENTION BUSINESS","************","",""
"02/16/2018","10:43","218CR0004015","VANDALISM/CRIMINAL MISCHIEF","POSSESSION OF DANGEROUS DRUGS","3766 HARRISON","ARREST(s) MADE",""
"02/16/2018","11:06","218CR0004016","HIT AND RUN","HIT AND RUN, UNATTENDED VEHICL","SHERMAN AVE AND YALE ST","",""
"02/16/2018","11:32","218CR0004017","HIT AND RUN","HIT AND RUN, UNATTENDED VEHICL","SHERMAN AVE AND YALE ST","",""
"02/16/2018","11:38","218CR0004018","ASSAULT","ASSAULT, SIMPLE","911 S COLORADO","",""
"02/16/2018","11:48","218CR0004019","FOUND PROPERTY","FOUND PROPERTY","************","",""
"02/16/2018","11:56","218CR0004020","THEFT","THEFT FROM MOTOR VEHICLE","2900 HARRISON AVE","",""
"02/16/2018","12:18","218CR0004021","ACCIDENT","ACCIDENT","3600 BLK HARRISON","",""
"02/16/2018","12:37","218CR0004023","CIVIL PAPER SERVICE","CIVIL PAPER SERVICE","2207 ABERDEEN","",""
"02/16/2018","12:44","218CR0004024","VANDALISM/CRIMINAL MISCHIEF","CRIMINAL MISCHIEF","2909 GRAND AVE","",""
"02/16/2018","12:52","218CR0004025","T/S","OPERATING WITHOUT CURRENT REGI","1800 BLK HARRISON","",""
"02/16/2018","13:04","218CR0004026","TRAFFIC HAZARD","TRAFFIC HAZARD","OREGON AVE BRIDGE","",""
"02/16/2018","13:16","218CR0004028","ASSIST OTHER AGENCY","ASSIST OTHER AGENCY","I90 MM 232 WB","",""
"02/16/2018","13:20","218CR0004029","WANTED PERSON","CRIMINAL CONTEMPT","MONTANA ST AND PLATINUM ST","ARREST(s) MADE",""
"02/16/2018","13:42","218CR0004030","ASSIST OTHER AGENCY","POSSESSION OF DANGEROUS DRUGS","1370 HARRISON AVE","ARREST(s) MADE",""
"02/16/2018","14:08","218CR0004031","FRAUD","FRAUD","256 MEADOW VIEW DR","",""
"02/16/2018","14:16","218CR0004032","T/S","T/S","HARRISON AND ELIZABETH WARREN","",""
"02/16/2018","14:36","218CR0004033","T/S","T/S","CONTINENTAL AND FLORAL","",""
"02/16/2018","14:39","218CR0004034","ALL OTHER","ALL OTHER","50 W BROADWAY #401","",""
"02/16/2018","14:50","218CR0004035","T/S","T/S","CONTINENTAL AND BAYARD","",""
"02/16/2018","15:06","218CR0004036","T/S","NO LIABILITY INSURANCE IN EFF.","CLARK ST AND PLATINUM","",""
"02/16/2018","15:08","218CR0004037","SUSPICIOUS ACTIVITY","SUSPICIOUS ACTIVITY","122001 BROWNS GULTCH RD","",""
"02/16/2018","15:11","218CR0004038","INFORMATION ONLY","INFORMATION ONLY","225 N ALASKA","",""
"02/16/2018","15:18","218CR0004039","ALL OTHER","ALL OTHER","1710 GRAND AVE","",""
"02/16/2018","15:20","218CR0004040","ACCIDENT","ACCIDENT","CIVIC CENTER RD AND HARRISON A","",""
"02/16/2018","15:22","218CR0004041","WELFARE CHECK","WELFARE CHECK","3901 HARRISON AVE","",""
"02/16/2018","15:29","218CR0004042","MEDICAL - EMERGENCY","MEDICAL - EMERGENCY","FLYING J 122000 BROWNS GLCH RD","",""
"02/16/2018","15:44","218CR0004043","ATL","ATL","NWE STORAGE AREA ON OXFORD ST","",""
"02/16/2018","15:47","218CR0004044","MEDICAL - EMERGENCY","MEDICAL - EMERGENCY","50 W BROADWAY #602","",""
"02/16/2018","15:48","218CR0004045","ALL OTHER","ALL OTHER","225 N ALASKA","",""
"02/16/2018","15:49","218CR0004046","UNKNOWN PROBLEM","UNKNOWN PROBLEM","AMHERST ST AND HARRISON AVE","",""
"02/16/2018","15:54","218CR0004047","ASSIST OTHER AGENCY","ASSIST OTHER AGENCY","BOULDER","",""
"02/16/2018","15:56","218CR0004048","VANDALISM/CRIMINAL MISCHIEF","VANDALISM/CRIMINAL MISCHIEF","1428 N MAIN ST","",""
"02/16/2018","15:58","218CR0004049","ALL OTHER","ALL OTHER","1016 GAYLORD ST","",""
"02/16/2018","16:06","218CR0004050","ACCIDENT","DUI - (REFUSAL)","FARRAGUT AND GRAND","ARREST(s) MADE",""
"02/16/2018","16:10","218CR0004051","T/S","FAILURE TO WEAR SEATBELT","OREGON AND DEWEY","",""
"02/16/2018","16:50","218CR0004052","ACCIDENT","DRIVE WHILE SUSP. OR REVOKED","FRONT ST AND UTAH AVE","",""
"02/16/2018","17:22","218CR0004053","CIVIL PAPER SERVICE","CIVIL PAPER SERVICE","155 W QUARTZ","",""
"02/16/2018","17:27","218CR0004054","T/S","T/S @ CIVIC CENTER PARKING LOT","CIVIC CENTER PARKING LOT","",""
"02/16/2018","17:42","218CR0004055","INTOXICATED PERSON","INTOXICATED PERSON","207 W PARK","",""
"02/16/2018","18:02","218CR0004056","HIT AND RUN","HIT AND RUN","3745 HARRISON AVE","",""
"02/16/2018","18:06","218CR0004057","JUVENILE RUNAWAY","OBSTRUCTING JUSTICE","726 S WASHINGTON","ARREST(s) MADE",""
"02/16/2018","18:19","218CR0004058","UNWANTED PERSON","UNWANTED PERSON","************","",""
"02/16/2018","18:20","218CR0004059","BURGLARY","BURGLARY, NON-RESIDENCE","1764 WILSON","",""
"02/16/2018","18:52","218CR0004060","SUSPICIOUS ACTIVITY","SUSPICIOUS ACTIVITY","3099 HARRISON","",""
"02/16/2018","19:15","218CR0004061","MEDICAL - EMERGENCY","MEDICAL - EMERGENCY","1736 LONGFELLOW ST APT 6","",""
"02/16/2018","19:31","218CR0004062","ALL OTHER","ALL OTHER","114 GRAND VIEW","",""
"02/16/2018","19:35","218CR0004063","WELFARE CHECK","WELFARE CHECK","1227 W GRANITE","",""
"02/16/2018","19:35","218CR0004064","CRIMINAL TRESPASS","CRIMINAL TRESPASS","3655 HARRISON AVE","",""
"02/16/2018","19:49","218CR0004065","ACCIDENT","CHANGING LANES WHEN UNSAFE","HARRISON AND YALE","",""
"02/16/2018","19:55","218CR0004066","BUSINESS CHECK","BUSINESS CHECK","531 S MONTANA","",""
"02/16/2018","20:32","218CR0004067","ATL","ATL","403 SILVERBOW HOMES","",""
"02/16/2018","20:36","218CR0004068","OPEN BUILDING","OPEN BUILDING","22 E QUARTZ","",""
"02/16/2018","20:40","218CR0004069","ALL OTHER","ALL OTHER","TOWN PUMP ROCKER","",""
"02/16/2018","20:46","218CR0004070","PARKING COMPLAINT","PARKING COMPLAINT","206 W GALENA","",""
"02/16/2018","21:23","218CR0004071","T/S","T/S @ 200 ROW OF SILVER BOW HOMES","200 ROW OF SILVER BOW HOMES","",""
"02/16/2018","21:49","218CR0004072","MEDICAL - EMERGENCY","MEDICAL - EMERGENCY","1807 SILVERBOW HOMES","",""
"02/16/2018","21:57","218CR0004073","DISTURBANCE","FAILURE TO DISPERSE","3218 EVANS AVE","ARREST(s) MADE",""
"02/16/2018","21:59","218CR0004074","T/S","T/S","HARRISON AVE AND DEWEY BLVD","",""
"02/16/2018","22:15","218CR0004075","ASSIST OTHER AGENCY","ASSIST OTHER AGENCY","I15 MM 132 NB","",""
"02/16/2018","22:33","218CR0004076","RESTRAINING ORDER VIOLATION","PFMA - REASONABLE APPREHENSION","326 CURTIS","",""
"02/16/2018","23:04","218CR0004077","T/S","T/S @ MONTANA AND WOOLMAN","MONTANA AND WOOLMAN","",""
"02/16/2018","23:13","218CR0004078","MEDICAL - EMERGENCY","MEDICAL - EMERGENCY","1802 A ST","",""
"02/16/2018","23:22","218CR0004079","DISTURBANCE","ASSAULT,  W/CUTS/BROKEN BONES","60 E BROADWAY","",""
"02/16/2018","23:39","218CR0004080","SUSPICIOUS ACTIVITY","SUSPICIOUS ACTIVITY","699 CENTENNIAL AVE","",""
"02/16/2018","23:41","218CR0004081","SUSPICIOUS ACTIVITY","OUT OF JURISDICTION - MISD","1000 S EXCELSIOR SWISS ALPS","",""
"02/16/2018","23:58","218CR0004082","T/S","SPEEDING","FARRELL AND THORNTON","",""
"02/17/2018","00:03","218CR0004083","UNWANTED PERSON","UNWANTED PERSON","************","",""
"02/17/2018","00:18","218CR0004084","SUSPICIOUS ACTIVITY","SUSPICIOUS ACTIVITY","20 S MONTANA ST","",""
"02/17/2018","00:21","218CR0004085","ATL","ATL","62 W BROADWAY","",""
"02/17/2018","00:50","218CR0004086","ALL OTHER","ALL OTHER","1370 HARRISON","",""
"02/17/2018","00:55","218CR0004087","T/S","T/S","MONTANA AND PLATINUM","",""
"02/17/2018","01:12","218CR0004088","BUSINESS CHECK","BUSINESS CHECK","3525 HARRISON AVE","",""
"02/17/2018","01:13","218CR0004089","INTIMIDATION","INTIMIDATION","301 W PARK APT 3","",""
"02/17/2018","01:36","218CR0004090","BUSINESS CHECK","BUSINESS CHECK","1370 HARRISON","",""
"02/17/2018","01:58","218CR0004091","DISTURBANCE","DISTURBANCE","1 W PARK","",""
"02/17/2018","02:08","218CR0004092","SUSPICIOUS ACTIVITY","SUSPICIOUS ACTIVITY","100 W PARK ST","",""
"02/17/2018","02:11","218CR0004093","DISTURBANCE","DISTURBANCE","1370 HARRISON","",""
"02/17/2018","02:27","218CR0004094","PROWLER","CRIMINAL MISCHIEF","1804 LAFAYETTE AVE","ARREST(s) MADE",""
"02/17/2018","02:46","218CR0004095","MEDICAL - EMERGENCY","MEDICAL - EMERGENCY","1125 S MAIN ST","",""
"02/17/2018","04:31","218CR0004096","ALARM - BURGLARY","ALARM - BURGLARY","************","",""
"02/17/2018","05:26","218CR0004097","ALL OTHER","ALL OTHER","1880 HARRISON AVE","",""
"02/17/2018","05:34","218CR0004098","DISTURBANCE","ASSAULT, SIMPLE","400 S CLARK ST","",""
"02/17/2018","06:54","218CR0004100","WELFARE CHECK","WELFARE CHECK","614 W PARK","",""
"02/17/2018","07:58","218CR0004101","HIT AND RUN","HIT AND RUN, UNATTENDED VEHICL","415 S EXCELSIOR","",""
"02/17/2018","08:04","218CR0004102","CIVIL PAPER SERVICE","CIVIL PAPER SERVICE","1415 SAGE","",""
"02/17/2018","08:11","218CR0004103","CIVIL PAPER SERVICE","CIVIL PAPER SERVICE","525 E MERCURY","",""
"02/17/2018","08:12","218CR0004104","CIVIL PAPER SERVICE","CIVIL PAPER SERVICE","201 HOBSON # 9","",""
"02/17/2018","08:21","218CR0004105","CIVIL PAPER SERVICE","CIVIL PAPER SERVICE","326 CURTIS","",""
"02/17/2018","08:49","218CR0004106","ASSAULT","ASSAULT","************","",""
"02/17/2018","08:51","218CR0004107","ASSIST OTHER AGENCY","PAROLE VIOLATION","213 S WASHINGTON","ARREST(s) MADE",""
"02/17/2018","08:57","218CR0004108","DISTURBANCE","DISTURBANCE","213 1/2 S WASHINGTON","",""
"02/17/2018","09:50","218CR0004109","ACCIDENT","CARELESS DRIVING","2544 HARRISON LISACS TRI STOP","",""
"02/17/2018","09:57","218CR0004110","SUSPICIOUS ACTIVITY","SUSPICIOUS ACTIVITY","2609 HARRISON AVE","",""
"02/17/2018","10:10","218CR0004111","CITIZEN AID","CITIZEN AID","225 N ALASKA","",""
"02/17/2018","10:37","218CR0004112","PRIVACY IN COMMUNICATIONS","PRIVACY IN COMMUNICATIONS","************","",""
"02/17/2018","10:54","218CR0004113","THEFT","THEFT, ALL OTHERS","400 BLK E PARK","",""
"02/17/2018","11:18","218CR0004114","MEDICAL - EMERGENCY","MEDICAL - EMERGENCY","1119 W PLATINUM","",""
"02/17/2018","11:36","218CR0004115","THEFT","THEFT, ALL OTHERS","910 EVANS #C2","",""
"02/17/2018","11:40","218CR0004116","CITIZEN AID","CITIZEN AID","213 1/2 S WASHINGTON","",""
"02/17/2018","11:48","218CR0004117","ALARM - MEDICAL","ALARM - MEDICAL","************","",""
"02/17/2018","11:55","218CR0004118","ACCIDENT","CARELESS DRIVING","900 BLK E FRONT","",""
"02/17/2018","12:09","218CR0004119","DISTURBANCE","DISTURBANCE","1838 PHILLIPS AVE #3","",""
"02/17/2018","12:31","218CR0004120","THEFT","THEFT","1301 W PARK ST","",""
"02/17/2018","12:31","218CR0004121","THEFT","CRIMINAL MISCHIEF","1301 W PARK ST","",""
"02/17/2018","12:54","218CR0004122","THEFT","THEFT, SHOPLIFT","3901 HARRISON AVE","",""
"02/17/2018","13:20","218CR0004123","HARASSMENT","HARASSMENT","225 N ALASKA","",""
"02/17/2018","13:31","218CR0004124","CITIZEN AID","CITIZEN AID","2723 EDWARDS","",""
"02/17/2018","13:33","218CR0004125","WELFARE CHECK","WELFARE CHECK","2705 KOSSUTH ST","",""
"02/17/2018","13:45","218CR0004126","ALARM - BURGLARY","ALARM - BURGLARY","************","",""
"02/17/2018","14:29","218CR0004127","ALARM - FIRE","ALARM - FIRE","2517 ST ANN","",""
"02/17/2018","14:40","218CR0004128","LED BUSINESS","LED BUSINESS","155 W GRANITE","",""
"02/17/2018","14:47","218CR0004129","PARKING COMPLAINT","PARKING COMPLAINT","830 SAMPSON DENTAL OFFICE","",""
"02/17/2018","14:52","218CR0004130","ASSAULT","ASSAULT","************","",""
"02/17/2018","15:03","218CR0004131","UNKNOWN PROBLEM","UNKNOWN PROBLEM","MARCIA ST AND GARRISON AVE","",""
"02/17/2018","15:14","218CR0004132","HARASSMENT","HARASSMENT","846 S MAIN ST","",""
"02/17/2018","15:18","218CR0004133","FIRE- GAS ODOR","FIRE- GAS ODOR","634 W QUARTZ","",""
"02/17/2018","15:46","218CR0004134","THEFT","THEFT","850 W BROADWAY ST","",""
"02/17/2018","15:55","218CR0004135","LED BUSINESS","LED BUSINESS","2124 ROBERTS","",""
"02/17/2018","16:00","218CR0004136","ABANDONED VEHICLE (MHP)","ABANDONED VEHICLE (MHP)","I15 MM 128 NB","",""
"02/17/2018","16:14","218CR0004137","HIT AND RUN","HIT AND RUN, UNATTENDED VEHICL","5100 S WARREN AVE #59","",""
"02/17/2018","16:17","218CR0004138","MEDICAL - EMERGENCY","MEDICAL - EMERGENCY","2929 HARRISON AVE #126","",""
"02/17/2018","16:24","218CR0004139","FRAUD","FRAUD","1915 THOMAS","",""
"02/17/2018","16:27","218CR0004140","BUSINESS CHECK","BUSINESS CHECK","PARKING GARAGE","",""
"02/17/2018","17:03","218CR0004141","MEDICAL - EMERGENCY","MEDICAL - EMERGENCY","905 14TH ST","",""
"02/17/2018","17:10","218CR0004142","DISTURBANCE","DISTURBANCE","ARIZONA AND MERCURY","",""
"02/17/2018","17:44","218CR0004143","VANDALISM/CRIMINAL MISCHIEF","OUT OF JURISDICTION - FELONY","3345 SANDERS ST","",""
"02/17/2018","18:09","218CR0004144","T/S","T/S","1900 BLK LAYFAYETTE","",""
"02/17/2018","18:12","218CR0004145","HIT AND RUN","HIT AND RUN","COBBAN AND FARRAGUT","",""
"02/17/2018","18:17","218CR0004146","SUSPICIOUS ACTIVITY","SUSPICIOUS ACTIVITY","815 W PARK ST","",""
"02/17/2018","18:45","218CR0004147","JUVENILE MISC","JUVENILE MISC","************","",""
"02/17/2018","19:12","218CR0004148","T/S","T/S","GLACIER BANK/1880 HARRISON","",""
"02/17/2018","19:23","218CR0004149","T/S","T/S","200 BLK S ARIZONA ST","",""
"02/17/2018","19:48","218CR0004150","ACCIDENT","ACCIDENT","225 N ALASKA","",""
"02/17/2018","19:53","218CR0004151","ACCIDENT","ACCIDENT","FRONT ST AND UTAH AVE","",""
"02/17/2018","19:58","218CR0004152","LOST OR STOLEN PROPERTY","LOST OR STOLEN PROPERTY","1514 SCHLEY","",""
"02/17/2018","20:01","218CR0004153","SUSPICIOUS ACTIVITY","SUSPICIOUS ACTIVITY","CIVIC CENTER PARKING LOT","",""
"02/17/2018","20:08","218CR0004154","ACCIDENT","ACCIDENT","ARIZONA ST AND PARK ST","",""
"02/17/2018","20:18","218CR0004155","T/S","T/S","600 BLK S MAIN ST","",""
"02/17/2018","20:26","218CR0004156","SUSPICIOUS ACTIVITY","SUSPICIOUS ACTIVITY","900 BLK S MONTANA","",""
"02/17/2018","20:34","218CR0004157","BUSINESS CHECK","BUSINESS CHECK","1370 HARRISON AVE","",""
"02/17/2018","20:57","218CR0004158","ACCIDENT","ACCIDENT","1713 GRAND","",""
"02/17/2018","21:06","218CR0004159","ASSIST OTHER AGENCY","ASSIST OTHER AGENCY","I15 MM 134 NB","",""
"02/17/2018","21:13","218CR0004160","TRAFFIC","TRAFFIC","CIVIC CENTER","",""
"02/17/2018","21:18","218CR0004161","ACCIDENT","ACCIDENT","I15 MM 122 NB","",""
"02/17/2018","21:21","218CR0004162","T/S","T/S","GRAND AND MONROE","",""
"02/17/2018","21:51","218CR0004163","TRAFFIC","TRAFFIC","200 BLK S ARIZONA","",""
"02/17/2018","22:07","218CR0004164","JUVENILE RUNAWAY","JUVENILE RUNAWAY","************","",""
"02/17/2018","22:25","218CR0004165","DISTURBANCE","DISTURBANCE","1 HOLIDAY PARK DRIVE","",""
"02/17/2018","22:27","218CR0004166","ACCIDENT","NO LIABILITY INSURANCE IN EFF.","500 BLK N MONTANA AT","",""
"02/17/2018","22:59","218CR0004167","T/S","T/S","HARRISON AVE AND COBBAN ST","",""
"02/17/2018","23:00","218CR0004168","MEDICAL - EMERGENCY","MEDICAL - EMERGENCY","501 W GRANITE","",""
"02/17/2018","23:07","218CR0004169","T/S","T/S","CIVIC CENTER RD","",""
"02/17/2018","23:09","218CR0004170","SUSPICIOUS ACTIVITY","CRIMINAL CONTEMPT","1800 HARRISON/GLACIER BANK","ARREST(s) MADE",""
"02/17/2018","23:24","218CR0004171","ALL OTHER","ALL OTHER","1838 PHILLIPS","",""
"02/17/2018","23:33","218CR0004172","PROWLER","PROWLER","2032 WALL ST","",""
"02/17/2018","23:43","218CR0004173","DRUGS","POSSESS DRUG PARAPHERNALIA","TIMES BAR 2 E GALENA","ARREST(s) MADE",""
"02/17/2018","23:46","218CR0004174","T/S","T/S","GRANITE AND MAIN","",""
"02/17/2018","23:47","218CR0004175","T/S","DRIVING W/OUT VALID D/L","HARRISON AND CIVIC CENTER","",""
"02/18/2018","00:27","218CR0004176","T/S","T/S","800 BLK DEWEY BLVD","",""
"02/18/2018","00:37","218CR0004177","BUSINESS CHECK","BUSINESS CHECK","531 S MONTANA","",""
"02/18/2018","00:39","218CR0004178","BUSINESS CHECK","BUSINESS CHECK","DEWEY BLVD AND HARRISON AVE","",""
"02/18/2018","00:39","218CR0004179","DISTURBANCE","DISTURBANCE","657 S COLORADO ST","",""
"02/18/2018","00:50","218CR0004180","MEDICAL - EMERGENCY","MEDICAL - EMERGENCY","155 W PACIFIC","",""
"02/18/2018","01:28","218CR0004181","MAN WITH A GUN","CCW WHILE UNDER INFLUENCE","1301 W PARK PROSPECTOR HALL","ARREST(s) MADE",""
"02/18/2018","01:48","218CR0004182","DISTURBANCE","DISTURBANCE","10 BLK N MAIN","",""
"02/18/2018","01:48","218CR0004183","ASSAULT","PFMA - REASONABLE APPREHENSION","1919 S ARIZONA","",""
"02/18/2018","01:51","218CR0004184","DISTURBANCE-NOISE","DISTURBANCE-NOISE","1612 SILVER BOW HOMES","",""
"02/18/2018","01:54","218CR0004185","ASSIST OTHER AGENCY","ASSIST OTHER AGENCY","I90 MM 211 EB","",""
"02/18/2018","02:06","218CR0004186","MAN WITH A GUN","ASSAULT WITH WEAPON","DAKOTA AND FRONT","ARREST(s) MADE",""
"02/18/2018","03:49","218CR0004187","SUSPICIOUS ACTIVITY","SUSPICIOUS ACTIVITY","4040 PAXSON","",""
"02/18/2018","04:42","218CR0004188","ASSIST OTHER AGENCY","ASSIST OTHER AGENCY","I90 MM 181 WB","",""
"02/18/2018","04:49","218CR0004189","INFORMATION ONLY","INFORMATION ONLY","3425 JERRY CREEK ROAD","",""
"02/18/2018","05:34","218CR0004190","DISTURBANCE","DISTURBANCE","GALENA ST AND WASHINGTON ST","",""
"02/18/2018","06:04","218CR0004191","ALARM - FIRE","ALARM - FIRE","4040 PAXSON","",""
"02/18/2018","06:55","218CR0004192","ASSIST OTHER AGENCY","ASSIST OTHER AGENCY","ROCKER","",""
"02/18/2018","08:02","218CR0004193","DISTURBANCE","DISTURBANCE","518 S IDAHO","",""
"02/18/2018","08:12","218CR0004194","ASSIST OTHER AGENCY","ASSIST OTHER AGENCY","I90 MM 173 EB","",""
"02/18/2018","08:17","218CR0004195","HARASSMENT","HARASSMENT","3101 GOODWIN","",""
"02/18/2018","08:33","218CR0004196","ALARM - BURGLARY","ALARM - BURGLARY","************","",""
"02/18/2018","08:56","218CR0004197","CIVIL PAPER SERVICE","CIVIL PAPER SERVICE","315 S JACKSON","",""
"02/18/2018","08:58","218CR0004198","MEDICAL - EMERGENCY","MEDICAL - EMERGENCY","3251 NETTIE ST","",""
"02/18/2018","09:03","218CR0004199","CIVIL PAPER SERVICE","CIVIL PAPER SERVICE","209 S CRYSTAL ST","",""
"02/18/2018","09:11","218CR0004200","CIVIL PAPER SERVICE","CIVIL PAPER SERVICE","737 W PARK #2","",""
"02/18/2018","09:13","218CR0004201","SUSPICIOUS ACTIVITY","SUSPICIOUS ACTIVITY","MAJORS AND LOWELL","",""
"02/18/2018","09:26","218CR0004202","CIVIL PAPER SERVICE","CIVIL PAPER SERVICE","611 W IRON","",""
"02/18/2018","09:28","218CR0004203","RESTRAINING ORDER VIOLATION","VIOLATION OF PROTECTION ORDER","2501 PARROT","",""
"02/18/2018","10:17","218CR0004204","ACCIDENT","MAKE R TURN FROM WRONG LANE","3900 BLK HARRISON","",""
"02/18/2018","10:42","218CR0004205","ACCIDENT","ACCIDENT","531 S MONTANA","",""
"02/18/2018","10:43","218CR0004206","JUVENILE RUNAWAY","JUVENILE RUNAWAY","************","",""
"02/18/2018","10:58","218CR0004207","MEDICAL - EMERGENCY","MEDICAL - EMERGENCY","1816 TEXAS AVE","",""
"02/18/2018","11:40","218CR0004208","THEFT","THEFT FROM MOTOR VEHICLE","4655 HARRISON AVE","",""
"02/18/2018","12:06","218CR0004209","T/S","T/S","GEORGE AND BANKS","",""
"02/18/2018","12:17","218CR0004210","WELFARE CHECK","WELFARE CHECK","1125 S MAIN APT 212","",""
"02/18/2018","12:28","218CR0004211","WELFARE CHECK","WELFARE CHECK","45 TRINITY LOOP","",""
"02/18/2018","12:33","218CR0004212","MEDICAL - ASSIST","MEDICAL - ASSIST","************","",""
"02/18/2018","12:37","218CR0004213","ASSAULT","AGGRAVATED ASSAULT","402 E BROADWAY","",""
"02/18/2018","12:43","218CR0004214","ACCIDENT","ACCIDENT","1259 E SECOND","",""
"02/18/2018","12:44","218CR0004215","MEDICAL - EMERGENCY","MEDICAL - EMERGENCY","921 W WOOLMAN","",""
"02/18/2018","12:58","218CR0004216","ASSIST OTHER AGENCY","ASSIST OTHER AGENCY","I90 MM 216 EB","",""
"02/18/2018","13:08","218CR0004217","BUSINESS CHECK","BUSINESS CHECK","1915 DEWEY","",""
"02/18/2018","13:15","218CR0004218","SUSPICIOUS ACTIVITY","SUSPICIOUS ACTIVITY","BROADWAY AND MONTANA","",""
"02/18/2018","13:21","218CR0004219","UNWANTED PERSON","VIOLATION OF PROTECTION ORDER","1911 PORTER","",""
"02/18/2018","13:44","218CR0004220","CITIZEN AID","CITIZEN AID","725 7TH STREET","",""
"02/18/2018","13:50","218CR0004221","ASSIST OTHER AGENCY","ASSIST OTHER AGENCY","I15 MM 118 NB","",""
"02/18/2018","14:18","218CR0004222","ASSIST OTHER AGENCY","ASSIST OTHER AGENCY","I15 MM 116 SB","",""
"02/18/2018","14:43","218CR0004223","CITIZEN AID","CITIZEN AID","400 S CLARK","",""
"02/18/2018","14:46","218CR0004224","ACCIDENT","ACCIDENT","1700 BLK FOUR MILE ROAD","",""
"02/18/2018","14:46","218CR0004225","SNOW REMOVAL COMPLAINT","SNOW REMOVAL COMPLAINT","1900 BLK GAYLORD","",""
"02/18/2018","14:53","218CR0004226","T/S","T/S","MARCIA AND HARRISON","",""
"02/18/2018","14:57","218CR0004227","HIT AND RUN","HIT AND RUN","1801 STUART AVE","",""
"02/18/2018","15:12","218CR0004228","WELFARE CHECK","WELFARE CHECK","ORO FINO GULCH RD","",""
"02/18/2018","15:21","218CR0004229","THEFT","THEFT FROM MOTOR VEHICLE","1007 OREGON","",""
"02/18/2018","15:27","218CR0004230","SUSPICIOUS ACTIVITY","SUSPICIOUS ACTIVITY","531 S MONTANA","",""
"02/18/2018","15:47","218CR0004231","BUSINESS CHECK","BUSINESS CHECK","PARKING GARAGE","",""
"02/18/2018","16:16","218CR0004232","THEFT","THEFT","304 N MAIN ST","",""
"02/18/2018","16:28","218CR0004233","FRAUD","THEFT, ALL OTHERS","1509 SCHLEY","",""
"02/18/2018","16:47","218CR0004234","ALL OTHER","ALL OTHER","810 1/2 W MERCURY ST","",""
"02/18/2018","16:52","218CR0004235","ACCIDENT","ACCIDENT","EXCELSIOR // IRON STREET","",""
"02/18/2018","17:08","218CR0004236","MEDICAL - EMERGENCY","MEDICAL - EMERGENCY","1618 BLK HARRISON AVE","",""
"02/18/2018","17:32","218CR0004237","PARKING COMPLAINT","PARKING COMPLAINT","600 BLK S WASHINGTON W ALLEY","",""
"02/18/2018","17:51","218CR0004238","ACCIDENT","HIT AND RUN, HIGHWAY FIXTURES","COBBAN AND HARRISON AVE","",""
"02/18/2018","18:04","218CR0004239","BURGLARY","CRIMINAL CONTEMPT","707 N WYOMING","ARREST(s) MADE",""
"02/18/2018","18:26","218CR0004240","HARASSMENT","HARASSMENT","135 W IRON ST","",""
"02/18/2018","18:48","218CR0004241","DISTURBANCE","ASSAULT WITH WEAPON","400 S CLARK ST","ARREST(s) MADE",""
"02/18/2018","19:01","218CR0004242","DISTURBANCE","DISTURBANCE","1228 RACOON WAY","",""
"02/18/2018","19:16","218CR0004243","ALARM - BURGLARY","ALARM - BURGLARY","************","",""
"02/18/2018","19:17","218CR0004244","UNWANTED PERSON","UNWANTED PERSON","************","",""
"02/18/2018","20:06","218CR0004245","ANIMAL COMPLAINT","ANIMAL COMPLAINT","COBBAN AND WARREN","",""
"02/18/2018","20:54","218CR0004246","ASSIST OTHER AGENCY","ASSIST OTHER AGENCY","I90 EBND MM214","",""
"02/18/2018","21:11","218CR0004247","MEDICAL - EMERGENCY","MEDICAL - EMERGENCY","3701 ELIZABETH WARREN","",""
"02/18/2018","21:12","218CR0004248","CITIZEN AID","CITIZEN AID","ALUMINUM ST AND MONTANA ST","",""
"02/18/2018","21:26","218CR0004249","DISTURBANCE","DISTURBANCE","330 W DALY","",""
"02/18/2018","22:27","218CR0004250","ASSIST OTHER AGENCY","ASSIST OTHER AGENCY","I90 MM 217 EB","",""
"02/18/2018","22:35","218CR0004251","MEDICAL - EMERGENCY","MEDICAL - EMERGENCY","I90 MM 211 EB","",""
"02/18/2018","22:55","218CR0004252","ASSIST OTHER AGENCY","ASSIST OTHER AGENCY","I90 MM 215 WB","",""
"02/18/2018","23:01","218CR0004253","ALL OTHER","ALL OTHER","225 N ALASKA","",""
"02/18/2018","23:05","218CR0004254","UNWANTED PERSON","UNWANTED PERSON","************","",""
"02/18/2018","23:12","218CR0004255","DISTURBANCE","DISTURBANCE","1499 B ST","",""
"02/18/2018","23:15","218CR0004256","T/S","T/S","I15 HARRISON AVE WB ON RAMP","",""
"02/18/2018","23:53","218CR0004257","SUSPICIOUS ACTIVITY","SUSPICIOUS ACTIVITY","1400 E SECOND CONTINENTAL STEE","",""
"02/18/2018","23:57","218CR0004258","THEFT","THEFT","229 S WASHINGTON","",""
"02/19/2018","00:20","218CR0004259","SUSPICIOUS ACTIVITY","SUSPICIOUS ACTIVITY","1119 CALIFORNIA ST","",""
"02/19/2018","00:28","218CR0004260","SUSPICIOUS ACTIVITY","SUSPICIOUS ACTIVITY","1050 S MONTANA WEBSTER COMPLEX","",""
"02/19/2018","00:34","218CR0004261","T/S","T/S","1000 BLK S PLACER E ALLEY","",""
"02/19/2018","00:41","218CR0004262","UNKNOWN PROBLEM","UNKNOWN PROBLEM","59 E BENNETT","",""
"02/19/2018","00:59","218CR0004263","BUSINESS CHECK","BUSINESS CHECK","1370 HARRISON TOWN PUMP","",""
"02/19/2018","02:35","218CR0004264","THEFT","THEFT","1527 1/2 DELAWARE","",""
"02/19/2018","05:20","218CR0004265","ATL","ATL","901 S WASHINGTON #14","",""
"02/19/2018","06:29","218CR0004266","DISTURBANCE","DISTURBANCE","3901 HARRISON AVE","",""
"02/19/2018","06:30","218CR0004267","CITIZEN AID","CITIZEN AID","INDIANA AND ALABAMA","",""
"02/19/2018","07:04","218CR0004268","SUSPICIOUS ACTIVITY","SUSPICIOUS ACTIVITY","MEADOWLARK AND MOUNT HIGHLAND","",""
"02/19/2018","07:17","218CR0004269","ASSIST OTHER AGENCY","ASSIST OTHER AGENCY","I90 MM 215","",""
"02/19/2018","08:11","218CR0004270","ALARM - BURGLARY","ALARM - BURGLARY","************","",""
"02/19/2018","08:51","218CR0004271","FOUND PROPERTY","FOUND PROPERTY","************","",""
"02/19/2018","09:18","218CR0004272","CIVIL PAPER SERVICE","CIVIL PAPER SERVICE","611 W IRON","",""
"02/19/2018","09:24","218CR0004273","LED BUSINESS","LED BUSINESS","BOZEMAN","",""
"02/19/2018","09:26","218CR0004274","CIVIL PAPER SERVICE","CIVIL PAPER SERVICE","2207 ABERDEEN ST","",""
"02/19/2018","09:29","218CR0004275","DISTURBANCE","DISTURBANCE","1 HOLIDAY PARK DRIVE","",""
"02/19/2018","09:49","218CR0004276","TRAFFIC HAZARD","TRAFFIC HAZARD","UTAH AND ALUMINUM","",""
"02/19/2018","09:57","218CR0004277","CRIMINAL TRESPASS","CRIMINAL MISCHIEF","1750 HOLMES AVE","ARREST(s) MADE",""
"02/19/2018","10:16","218CR0004278","ANIMAL COMPLAINT","ANIMAL COMPLAINT","I90 MM 129","",""
"02/19/2018","10:33","218CR0004279","CIVIL PAPER SERVICE","CIVIL PAPER SERVICE","2720 PINE","",""
"02/19/2018","10:46","218CR0004280","ASSIST OTHER AGENCY","ASSIST OTHER AGENCY","","",""
"02/19/2018","11:01","218CR0004281","ACCIDENT","ACCIDENT","3131 HARRISON","",""
"02/19/2018","11:59","218CR0004282","ACCIDENT","ACCIDENT","HOLMES AND WARREN","",""
"02/19/2018","12:01","218CR0004283","CITIZEN AID","CITIZEN AID","518 N MAIN","",""
"02/19/2018","12:05","218CR0004284","LED BUSINESS","LED BUSINESS","24 E COPPER","",""
"02/19/2018","12:09","218CR0004285","ACCIDENT","ACCIDENT","AMHERST ST AND HARRISON AVE","",""
"02/19/2018","12:12","218CR0004287","ACCIDENT","ACCIDENT","2001 SOUTH MONTANA ST","",""
"02/19/2018","12:15","218CR0004286","CITIZEN AID","CITIZEN AID","205 W GRANITE ST #306","",""
"02/19/2018","12:31","218CR0004288","THEFT","THEFT FROM MOTOR VEHICLE","122005 NISSLER","",""
"02/19/2018","12:41","218CR0004289","ACCIDENT","ACCIDENT","MONTANA AND JOSETTE","",""
"02/19/2018","12:46","218CR0004290","ACCIDENT","ACCIDENT","I15 MM 126 SB","",""
"02/19/2018","12:57","218CR0004291","UNWANTED PERSON","PFMA - MINOR INJ/PHYSICAL CONT","307 GRANITE MTN RD","ARREST(s) MADE",""
"02/19/2018","13:09","218CR0004292","CIVIL PAPER SERVICE","CIVIL PAPER SERVICE","119047 BATTLE RIDGE RD","",""
"02/19/2018","13:21","218CR0004293","FIRE - OTHER","FIRE - OTHER","1310 TEXAS AVE","",""
"02/19/2018","13:28","218CR0004294","DISTURBANCE","DISTURBANCE","205 W GRANITE APT 210","",""
"02/19/2018","13:38","218CR0004295","MEDICAL - EMERGENCY","MEDICAL - EMERGENCY","MONTANA ST AND PLATINUM ST","",""
"02/19/2018","13:49","218CR0004296","MEDICAL - EMERGENCY","MEDICAL - EMERGENCY","105 RAMPART DR APT 106","",""
"02/19/2018","14:11","218CR0004297","HARASSMENT","HARASSMENT","50 W BROADWAY #401","",""
"02/19/2018","14:16","218CR0004298","ACCIDENT","ACCIDENT","I90 MM 214 EB","",""
"02/19/2018","14:19","218CR0004299","DISTURBANCE","DISTURBANCE","531 S MONTANA ST","",""
"02/19/2018","14:25","218CR0004300","ALARM - BURGLARY","ALARM - BURGLARY","************","",""
"02/19/2018","14:55","218CR0004301","ACCIDENT","ACCIDENT","I90 MM 215 EBND","",""
"02/19/2018","15:01","218CR0004302","T/S","T/S @ 1400 BLK S MONTANA ST","1400 BLK S MONTANA ST","",""
"02/19/2018","15:07","218CR0004303","ASSIST OTHER AGENCY","ASSIST OTHER AGENCY","I90 MM 216 EB","",""
"02/19/2018","15:12","218CR0004304","T/S","T/S @ FRONT AND DAKOTA ST","FRONT AND DAKOTA ST","",""
"02/19/2018","15:16","218CR0004305","MEDICAL - EMERGENCY","MEDICAL - EMERGENCY","140 COTTAGE LOOP","",""
"02/19/2018","15:37","218CR0004306","T/S","T/S @ MT HIGHLAND DR AND BARTLETT ST","MT HIGHLAND DR AND BARTLETT ST","",""
"02/19/2018","15:50","218CR0004307","HIT AND RUN","HIT AND RUN","1611 DUNDEE ST","",""
"02/19/2018","15:52","218CR0004308","T/S","OPERATING WITHOUT CURRENT REGI","MONTANA ST AND IRON ST","",""
"02/19/2018","15:55","218CR0004309","ASSIST OTHER AGENCY","ASSIST OTHER AGENCY","I90 MM 215 WBND","",""
"02/19/2018","16:08","218CR0004310","ASSIST OTHER AGENCY","ASSIST OTHER AGENCY","I90 MM 214 EBND","",""
"02/19/2018","16:42","218CR0004311","CRIMINAL TRESPASS","CRIMINAL TRESPASS","FAIRMONT ROAD","",""
"02/19/2018","16:46","218CR0004312","DISTURBANCE-NOISE","DISTURBANCE-NOISE","410 SILVERBOW HOMES","",""
"02/19/2018","17:05","218CR0004313","FIRE- GAS ODOR","FIRE- GAS ODOR","528 1/2 W QUARTZ","",""
"02/19/2018","17:08","218CR0004314","ALARM - BURGLARY","ALARM - BURGLARY","************","",""
"02/19/2018","17:11","218CR0004315","ALL OTHER","ALL OTHER","50 W BROADWAY ST #401","",""
"02/19/2018","17:17","218CR0004316","ANIMAL COMPLAINT","ANIMAL COMPLAINT","660 S WASHINGTON","",""
"02/19/2018","17:26","218CR0004317","CITIZEN AID","CITIZEN AID","MOUNT MORIAH CEMETERY","",""
"02/19/2018","17:39","218CR0004318","MEDICAL - EMERGENCY","MEDICAL - EMERGENCY","3125 PRINCETON","",""
"02/19/2018","17:49","218CR0004319","MEDICAL - EMERGENCY","MEDICAL - EMERGENCY","155 W QUARTZ","",""
"02/19/2018","18:40","218CR0004320","FIRE- GAS ODOR","FIRE- GAS ODOR","711 SILVER BOW HOMES","",""
"02/19/2018","18:53","218CR0004321","ALL OTHER","ALL OTHER","76 W ALUMINUM ST","",""
"02/19/2018","19:17","218CR0004322","HARASSMENT","INTIMIDATION","203 BADEN ST","",""
"02/19/2018","19:28","218CR0004323","HIT AND RUN","HIT AND RUN, UNATTENDED VEHICL","916 E FRONT","",""
"02/19/2018","19:33","218CR0004324","MEDICAL - EMERGENCY","MEDICAL - EMERGENCY","121 N IDAHO #A","",""
"02/19/2018","20:11","218CR0004325","INTOXICATED PERSON","CRIMINAL ENDANGERMENT","531 S MONTANA","ARREST(s) MADE",""
"02/19/2018","20:22","218CR0004326","ASSIST OTHER AGENCY","ASSIST OTHER AGENCY","I90 MM 234 EB","",""
"02/19/2018","20:39","218CR0004327","SUSPICIOUS ACTIVITY","CRIMINAL ENDANGERMENT","2 E GALENA TIMES","ARREST(s) MADE",""
"02/19/2018","21:01","218CR0004328","CITIZEN AID","CITIZEN AID","60 E BROADWAY","",""
"02/19/2018","21:36","218CR0004329","ALARM - FIRE","ALARM - FIRE","3701 ELIZABETH WARREN","",""
"02/19/2018","21:39","218CR0004330","WELFARE CHECK","WELFARE CHECK","403 SILVER BOW HOMES","",""
"02/19/2018","21:45","218CR0004331","DISTURBANCE-NOISE","DISTURBANCE-NOISE","205 W GRANITE #306","",""
"02/19/2018","21:47","218CR0004332","FIRE - STRUCTURE","FIRE - STRUCTURE","2205 NORTH DRIVE","",""
"02/19/2018","21:51","218CR0004333","UNWANTED PERSON","UNWANTED PERSON","************","",""
"02/19/2018","22:35","218CR0004334","SUSPICIOUS ACTIVITY","SUSPICIOUS ACTIVITY","2500 MASSACHUSETTS AVE","",""
"02/19/2018","23:18","218CR0004335","TRAFFIC HAZARD","TRAFFIC HAZARD","635 W GRANITE","",""
"02/19/2018","23:25","218CR0004336","BUSINESS CHECK","BUSINESS CHECK","1370 HARRISON TOWN PUMP","",""
"02/19/2018","23:30","218CR0004337","SUSPICIOUS ACTIVITY","SUSPICIOUS ACTIVITY","FRONT AND HARRISON","",""
"02/19/2018","23:52","218CR0004338","HARASSMENT","HARASSMENT","1000 E FRONT FRONT ST LAUNDROM","",""
"02/20/2018","00:11","218CR0004339","LED CRASH","LED CRASH","300 BLK HATTIE LOOP","",""
"02/20/2018","02:13","218CR0004340","BUSINESS CHECK","BUSINESS CHECK","1370 HARRISON TOWN PUMP","",""
"02/20/2018","02:21","218CR0004341","BUSINESS CHECK","BUSINESS CHECK","2711 HARRISON","",""
"02/20/2018","03:03","218CR0004342","ANIMAL COMPLAINT","ANIMAL COMPLAINT","2100 BLK LOCUST","",""
"02/20/2018","04:13","218CR0004343","SUSPICIOUS ACTIVITY","SUSPICIOUS ACTIVITY","DEWEY AND HARRISON","",""
"02/20/2018","04:27","218CR0004344","SUSPICIOUS ACTIVITY","SUSPICIOUS ACTIVITY","PINION // C STREET","",""
"02/20/2018","04:49","218CR0004345","SUSPICIOUS ACTIVITY","SUSPICIOUS ACTIVITY","1955 OREGON","",""
"02/20/2018","05:02","218CR0004346","DISTURBANCE","CRIMINAL TRESPASS TO PROPERTY","1527 1/2 DELAWARE","ARREST(s) MADE",""
"02/20/2018","05:03","218CR0004347","ALARM - BURGLARY","ALARM - BURGLARY","************","",""
"02/20/2018","05:23","218CR0004348","ACCIDENT","ACCIDENT","617 IRON","",""
"02/20/2018","06:59","218CR0004349","TRAFFIC HAZARD","TRAFFIC HAZARD","MT HIGHLAND // CONTINENTIAL","",""
 

BSB police report ending February 19, 2018

"02/16/2018","00:44","218CR0003987","CITIZEN AID","CITIZEN AID","HARRISON AND OTTAWA","",""
"02/16/2018","02:02","218CR0003990","T/S","DUI - (REFUSAL)","PARK AND ALABAMA","ARREST(s) MADE",""
"02/16/2018","03:16","218CR0003992","ATL","ATL","2909 CARTER ST","",""
"02/16/2018","03:22","218CR0003993","HARASSMENT","HARASSMENT","2325 COBBAN","",""
"02/16/2018","05:12","218CR0003994","MEDICAL - EMERGENCY","MEDICAL - EMERGENCY","2700 HARVARD AVE","",""
"02/16/2018","05:49","218CR0003995","THEFT","THEFT","1408 SCHLEY","",""
"02/16/2018","07:49","218CR0003997","CIVIL PAPER SERVICE","CIVIL PAPER SERVICE","62 W BROADWAY","",""
"02/16/2018","07:51","218CR0003998","MEDICAL - ASSIST","MEDICAL - ASSIST","************","",""
"02/16/2018","07:53","218CR0003999","THEFT","THEFT FROM MOTOR VEHICLE","1655 SCHLEY","",""
"02/16/2018","07:59","218CR0004000","ASSIST OTHER AGENCY","ASSIST OTHER AGENCY","301 GRANITE MTN RD","",""
"02/16/2018","08:05","218CR0004001","JUVENILE MISC","JUVENILE MISC","************","",""
"02/16/2018","08:06","218CR0004002","JUVENILE MISC","JUVENILE MISC","************","",""
"02/16/2018","08:07","218CR0004003","HARASSMENT","HARASSMENT","1366 SUNSET","",""
"02/16/2018","08:12","218CR0004004","MEDICAL - EMERGENCY","MEDICAL - EMERGENCY","2101 GAYLORD ST","",""
"02/16/2018","08:19","218CR0004005","TRAFFIC HAZARD","TRAFFIC HAZARD","FARRELL AND THORNTON","",""
"02/16/2018","08:25","218CR0004007","HIT AND RUN","IMMEDIATE NOTIFICATION OF ACC","FRONT AND UTAH","",""
"02/16/2018","08:25","218CR0004006","LED BUSINESS","LED BUSINESS","155 W GRANITE","",""
"02/16/2018","08:46","218CR0004008","WELFARE CHECK","WELFARE CHECK","3000 BLK OTTAWA ST","",""
"02/16/2018","09:01","218CR0004009","HARASSMENT","HARASSMENT","1324 HARRISON","",""
"02/16/2018","09:35","218CR0004010","VANDALISM/CRIMINAL MISCHIEF","VANDALISM/CRIMINAL MISCHIEF","3525 HARRISON AVE","",""
"02/16/2018","10:09","218CR0004012","MEDICAL - EMERGENCY","MEDICAL - EMERGENCY","845 S WYOMING ST","",""
"02/16/2018","10:22","218CR0004013","HARASSMENT","HARASSMENT","2325 COBBAN","",""
"02/16/2018","10:37","218CR0004014","DETENTION BUSINESS","DETENTION BUSINESS","************","",""
"02/16/2018","10:43","218CR0004015","VANDALISM/CRIMINAL MISCHIEF","POSSESSION OF DANGEROUS DRUGS","3766 HARRISON","ARREST(s) MADE",""
"02/16/2018","11:06","218CR0004016","HIT AND RUN","HIT AND RUN, UNATTENDED VEHICL","SHERMAN AVE AND YALE ST","",""
"02/16/2018","11:32","218CR0004017","HIT AND RUN","HIT AND RUN, UNATTENDED VEHICL","SHERMAN AVE AND YALE ST","",""
"02/16/2018","11:38","218CR0004018","ASSAULT","ASSAULT, SIMPLE","911 S COLORADO","",""
"02/16/2018","11:48","218CR0004019","FOUND PROPERTY","FOUND PROPERTY","************","",""
"02/16/2018","11:56","218CR0004020","THEFT","THEFT FROM MOTOR VEHICLE","2900 HARRISON AVE","",""
"02/16/2018","12:18","218CR0004021","ACCIDENT","ACCIDENT","3600 BLK HARRISON","",""
"02/16/2018","12:37","218CR0004023","CIVIL PAPER SERVICE","CIVIL PAPER SERVICE","2207 ABERDEEN","",""
"02/16/2018","12:44","218CR0004024","VANDALISM/CRIMINAL MISCHIEF","CRIMINAL MISCHIEF","2909 GRAND AVE","",""
"02/16/2018","12:52","218CR0004025","T/S","OPERATING WITHOUT CURRENT REGI","1800 BLK HARRISON","",""
"02/16/2018","13:04","218CR0004026","TRAFFIC HAZARD","TRAFFIC HAZARD","OREGON AVE BRIDGE","",""
"02/16/2018","13:16","218CR0004028","ASSIST OTHER AGENCY","ASSIST OTHER AGENCY","I90 MM 232 WB","",""
"02/16/2018","13:20","218CR0004029","WANTED PERSON","CRIMINAL CONTEMPT","MONTANA ST AND PLATINUM ST","ARREST(s) MADE",""
"02/16/2018","13:42","218CR0004030","ASSIST OTHER AGENCY","POSSESSION OF DANGEROUS DRUGS","1370 HARRISON AVE","ARREST(s) MADE",""
"02/16/2018","14:08","218CR0004031","FRAUD","FRAUD","256 MEADOW VIEW DR","",""
"02/16/2018","14:39","218CR0004034","ALL OTHER","ALL OTHER","50 W BROADWAY #401","",""
"02/16/2018","15:06","218CR0004036","T/S","NO LIABILITY INSURANCE IN EFF.","CLARK ST AND PLATINUM","",""
"02/16/2018","15:08","218CR0004037","SUSPICIOUS ACTIVITY","SUSPICIOUS ACTIVITY","122001 BROWNS GULTCH RD","",""
"02/16/2018","15:11","218CR0004038","INFORMATION ONLY","INFORMATION ONLY","225 N ALASKA","",""
"02/16/2018","15:18","218CR0004039","ALL OTHER","ALL OTHER","1710 GRAND AVE","",""
"02/16/2018","15:20","218CR0004040","ACCIDENT","ACCIDENT","CIVIC CENTER RD AND HARRISON A","",""
"02/16/2018","15:22","218CR0004041","WELFARE CHECK","WELFARE CHECK","3901 HARRISON AVE","",""
"02/16/2018","15:29","218CR0004042","MEDICAL - EMERGENCY","MEDICAL - EMERGENCY","FLYING J 122000 BROWNS GLCH RD","",""
"02/16/2018","15:44","218CR0004043","ATL","ATL","NWE STORAGE AREA ON OXFORD ST","",""
"02/16/2018","15:47","218CR0004044","MEDICAL - EMERGENCY","MEDICAL - EMERGENCY","50 W BROADWAY #602","",""
"02/16/2018","15:48","218CR0004045","ALL OTHER","ALL OTHER","225 N ALASKA","",""
"02/16/2018","15:49","218CR0004046","UNKNOWN PROBLEM","UNKNOWN PROBLEM","AMHERST ST AND HARRISON AVE","",""
"02/16/2018","15:54","218CR0004047","ASSIST OTHER AGENCY","ASSIST OTHER AGENCY","BOULDER","",""
"02/16/2018","15:56","218CR0004048","VANDALISM/CRIMINAL MISCHIEF","VANDALISM/CRIMINAL MISCHIEF","1428 N MAIN ST","",""
"02/16/2018","15:58","218CR0004049","ALL OTHER","ALL OTHER","1016 GAYLORD ST","",""
"02/16/2018","16:06","218CR0004050","ACCIDENT","DUI - (REFUSAL)","FARRAGUT AND GRAND","ARREST(s) MADE",""
"02/16/2018","16:10","218CR0004051","T/S","FAILURE TO WEAR SEATBELT","OREGON AND DEWEY","",""
"02/16/2018","16:50","218CR0004052","ACCIDENT","DRIVE WHILE SUSP. OR REVOKED","FRONT ST AND UTAH AVE","",""
"02/16/2018","17:22","218CR0004053","CIVIL PAPER SERVICE","CIVIL PAPER SERVICE","155 W QUARTZ","",""
"02/16/2018","17:42","218CR0004055","INTOXICATED PERSON","INTOXICATED PERSON","207 W PARK","",""
"02/16/2018","18:02","218CR0004056","HIT AND RUN","HIT AND RUN","3745 HARRISON AVE","",""
"02/16/2018","18:06","218CR0004057","JUVENILE RUNAWAY","OBSTRUCTING JUSTICE","726 S WASHINGTON","ARREST(s) MADE",""
"02/16/2018","18:19","218CR0004058","UNWANTED PERSON","UNWANTED PERSON","************","",""
"02/16/2018","18:20","218CR0004059","BURGLARY","BURGLARY, NON-RESIDENCE","1764 WILSON","",""
"02/16/2018","18:52","218CR0004060","SUSPICIOUS ACTIVITY","SUSPICIOUS ACTIVITY","3099 HARRISON","",""
"02/16/2018","19:15","218CR0004061","MEDICAL - EMERGENCY","MEDICAL - EMERGENCY","1736 LONGFELLOW ST APT 6","",""
"02/16/2018","19:31","218CR0004062","ALL OTHER","ALL OTHER","114 GRAND VIEW","",""
"02/16/2018","19:35","218CR0004063","WELFARE CHECK","WELFARE CHECK","1227 W GRANITE","",""
"02/16/2018","19:35","218CR0004064","CRIMINAL TRESPASS","CRIMINAL TRESPASS","3655 HARRISON AVE","",""
"02/16/2018","19:49","218CR0004065","ACCIDENT","CHANGING LANES WHEN UNSAFE","HARRISON AND YALE","",""
"02/16/2018","19:55","218CR0004066","BUSINESS CHECK","BUSINESS CHECK","531 S MONTANA","",""
"02/16/2018","20:32","218CR0004067","ATL","ATL","403 SILVERBOW HOMES","",""
"02/16/2018","20:36","218CR0004068","OPEN BUILDING","OPEN BUILDING","22 E QUARTZ","",""
"02/16/2018","20:40","218CR0004069","ALL OTHER","ALL OTHER","TOWN PUMP ROCKER","",""
"02/16/2018","20:46","218CR0004070","PARKING COMPLAINT","PARKING COMPLAINT","206 W GALENA","",""
"02/16/2018","21:49","218CR0004072","MEDICAL - EMERGENCY","MEDICAL - EMERGENCY","1807 SILVERBOW HOMES","",""
"02/16/2018","21:57","218CR0004073","DISTURBANCE","DISTURBANCE","3218 EVANS AVE","",""
"02/16/2018","22:15","218CR0004075","ASSIST OTHER AGENCY","ASSIST OTHER AGENCY","I15 MM 132 NB","",""
"02/16/2018","22:33","218CR0004076","RESTRAINING ORDER VIOLATION","PFMA - REASONABLE APPREHENSION","326 CURTIS","",""
"02/16/2018","23:13","218CR0004078","MEDICAL - EMERGENCY","MEDICAL - EMERGENCY","1802 A ST","",""
"02/16/2018","23:22","218CR0004079","DISTURBANCE","ASSAULT,  W/CUTS/BROKEN BONES","60 E BROADWAY","",""
"02/16/2018","23:39","218CR0004080","SUSPICIOUS ACTIVITY","SUSPICIOUS ACTIVITY","699 CENTENNIAL AVE","",""
"02/16/2018","23:41","218CR0004081","SUSPICIOUS ACTIVITY","OUT OF JURISDICTION - MISD","1000 S EXCELSIOR SWISS ALPS","",""
"02/16/2018","23:58","218CR0004082","T/S","SPEEDING","FARRELL AND THORNTON","",""
"02/17/2018","00:03","218CR0004083","UNWANTED PERSON","UNWANTED PERSON","************","",""
"02/17/2018","00:18","218CR0004084","SUSPICIOUS ACTIVITY","SUSPICIOUS ACTIVITY","20 S MONTANA ST","",""
"02/17/2018","00:21","218CR0004085","ATL","ATL","62 W BROADWAY","",""
"02/17/2018","00:50","218CR0004086","ALL OTHER","ALL OTHER","1370 HARRISON","",""
"02/17/2018","01:12","218CR0004088","BUSINESS CHECK","BUSINESS CHECK","3525 HARRISON AVE","",""
"02/17/2018","01:13","218CR0004089","INTIMIDATION","INTIMIDATION","301 W PARK APT 3","",""
"02/17/2018","01:36","218CR0004090","BUSINESS CHECK","BUSINESS CHECK","1370 HARRISON","",""
"02/17/2018","01:58","218CR0004091","DISTURBANCE","DISTURBANCE","1 W PARK","",""
"02/17/2018","02:08","218CR0004092","SUSPICIOUS ACTIVITY","SUSPICIOUS ACTIVITY","100 W PARK ST","",""
"02/17/2018","02:11","218CR0004093","DISTURBANCE","DISTURBANCE","1370 HARRISON","",""
"02/17/2018","02:27","218CR0004094","PROWLER","CRIMINAL MISCHIEF","1804 LAFAYETTE AVE","ARREST(s) MADE",""
"02/17/2018","02:46","218CR0004095","MEDICAL - EMERGENCY","MEDICAL - EMERGENCY","1125 S MAIN ST","",""
"02/17/2018","04:31","218CR0004096","ALARM - BURGLARY","ALARM - BURGLARY","************","",""
"02/17/2018","05:26","218CR0004097","ALL OTHER","ALL OTHER","1880 HARRISON AVE","",""
"02/17/2018","05:34","218CR0004098","DISTURBANCE","ASSAULT, SIMPLE","400 S CLARK ST","",""
"02/17/2018","06:54","218CR0004100","WELFARE CHECK","WELFARE CHECK","614 W PARK","",""
"02/17/2018","07:58","218CR0004101","HIT AND RUN","HIT AND RUN, UNATTENDED VEHICL","415 S EXCELSIOR","",""
"02/17/2018","08:04","218CR0004102","CIVIL PAPER SERVICE","CIVIL PAPER SERVICE","1415 SAGE","",""
"02/17/2018","08:11","218CR0004103","CIVIL PAPER SERVICE","CIVIL PAPER SERVICE","525 E MERCURY","",""
"02/17/2018","08:12","218CR0004104","CIVIL PAPER SERVICE","CIVIL PAPER SERVICE","201 HOBSON # 9","",""
"02/17/2018","08:21","218CR0004105","CIVIL PAPER SERVICE","CIVIL PAPER SERVICE","326 CURTIS","",""
"02/17/2018","08:49","218CR0004106","ASSAULT","ASSAULT","************","",""
"02/17/2018","08:51","218CR0004107","ASSIST OTHER AGENCY","PAROLE VIOLATION","213 S WASHINGTON","ARREST(s) MADE",""
"02/17/2018","08:57","218CR0004108","DISTURBANCE","DISTURBANCE","213 1/2 S WASHINGTON","",""
"02/17/2018","09:50","218CR0004109","ACCIDENT","CARELESS DRIVING","2544 HARRISON LISACS TRI STOP","",""
"02/17/2018","09:57","218CR0004110","SUSPICIOUS ACTIVITY","SUSPICIOUS ACTIVITY","2609 HARRISON AVE","",""
"02/17/2018","10:10","218CR0004111","CITIZEN AID","CITIZEN AID","225 N ALASKA","",""
"02/17/2018","10:37","218CR0004112","PRIVACY IN COMMUNICATIONS","PRIVACY IN COMMUNICATIONS","************","",""
"02/17/2018","10:54","218CR0004113","THEFT","THEFT, ALL OTHERS","400 BLK E PARK","",""
"02/17/2018","11:18","218CR0004114","MEDICAL - EMERGENCY","MEDICAL - EMERGENCY","1119 W PLATINUM","",""
"02/17/2018","11:36","218CR0004115","THEFT","THEFT, ALL OTHERS","910 EVANS #C2","",""
"02/17/2018","11:40","218CR0004116","CITIZEN AID","CITIZEN AID","213 1/2 S WASHINGTON","",""
"02/17/2018","11:48","218CR0004117","ALARM - MEDICAL","ALARM - MEDICAL","************","",""
"02/17/2018","11:55","218CR0004118","ACCIDENT","CARELESS DRIVING","900 BLK E FRONT","",""
"02/17/2018","12:09","218CR0004119","DISTURBANCE","DISTURBANCE","1838 PHILLIPS AVE #3","",""
"02/17/2018","12:31","218CR0004120","THEFT","THEFT","1301 W PARK ST","",""
"02/17/2018","12:31","218CR0004121","THEFT","CRIMINAL MISCHIEF","1301 W PARK ST","",""
"02/17/2018","12:54","218CR0004122","THEFT","THEFT, SHOPLIFT","3901 HARRISON AVE","",""
"02/17/2018","13:20","218CR0004123","HARASSMENT","HARASSMENT","225 N ALASKA","",""
"02/17/2018","13:31","218CR0004124","CITIZEN AID","CITIZEN AID","2723 EDWARDS","",""
"02/17/2018","13:33","218CR0004125","WELFARE CHECK","WELFARE CHECK","2705 KOSSUTH ST","",""
"02/17/2018","13:45","218CR0004126","ALARM - BURGLARY","ALARM - BURGLARY","************","",""
"02/17/2018","14:29","218CR0004127","ALARM - FIRE","ALARM - FIRE","2517 ST ANN","",""
"02/17/2018","14:40","218CR0004128","LED BUSINESS","LED BUSINESS","155 W GRANITE","",""
"02/17/2018","14:47","218CR0004129","PARKING COMPLAINT","PARKING COMPLAINT","830 SAMPSON DENTAL OFFICE","",""
"02/17/2018","14:52","218CR0004130","ASSAULT","ASSAULT","************","",""
"02/17/2018","15:03","218CR0004131","UNKNOWN PROBLEM","UNKNOWN PROBLEM","MARCIA ST AND GARRISON AVE","",""
"02/17/2018","15:14","218CR0004132","HARASSMENT","HARASSMENT","846 S MAIN ST","",""
"02/17/2018","15:18","218CR0004133","FIRE- GAS ODOR","FIRE- GAS ODOR","634 W QUARTZ","",""
"02/17/2018","15:46","218CR0004134","THEFT","THEFT","850 W BROADWAY ST","",""
"02/17/2018","15:55","218CR0004135","LED BUSINESS","LED BUSINESS","2124 ROBERTS","",""
"02/17/2018","16:00","218CR0004136","ABANDONED VEHICLE (MHP)","ABANDONED VEHICLE (MHP)","I15 MM 128 NB","",""
"02/17/2018","16:14","218CR0004137","HIT AND RUN","HIT AND RUN, UNATTENDED VEHICL","5100 S WARREN AVE #59","",""
"02/17/2018","16:17","218CR0004138","MEDICAL - EMERGENCY","MEDICAL - EMERGENCY","2929 HARRISON AVE #126","",""
"02/17/2018","16:24","218CR0004139","FRAUD","FRAUD","1915 THOMAS","",""
"02/17/2018","16:27","218CR0004140","BUSINESS CHECK","BUSINESS CHECK","PARKING GARAGE","",""
"02/17/2018","17:03","218CR0004141","MEDICAL - EMERGENCY","MEDICAL - EMERGENCY","905 14TH ST","",""
"02/17/2018","17:10","218CR0004142","DISTURBANCE","DISTURBANCE","ARIZONA AND MERCURY","",""
"02/17/2018","17:44","218CR0004143","VANDALISM/CRIMINAL MISCHIEF","OUT OF JURISDICTION - FELONY","3345 SANDERS ST","",""
"02/17/2018","18:12","218CR0004145","HIT AND RUN","HIT AND RUN","COBBAN AND FARRAGUT","",""
"02/17/2018","18:17","218CR0004146","SUSPICIOUS ACTIVITY","SUSPICIOUS ACTIVITY","815 W PARK ST","",""
"02/17/2018","18:45","218CR0004147","JUVENILE MISC","JUVENILE MISC","************","",""
"02/17/2018","19:48","218CR0004150","ACCIDENT","ACCIDENT","225 N ALASKA","",""
"02/17/2018","19:53","218CR0004151","ACCIDENT","ACCIDENT","FRONT ST AND UTAH AVE","",""
"02/17/2018","19:58","218CR0004152","LOST OR STOLEN PROPERTY","LOST OR STOLEN PROPERTY","1514 SCHLEY","",""
"02/17/2018","20:01","218CR0004153","SUSPICIOUS ACTIVITY","SUSPICIOUS ACTIVITY","CIVIC CENTER PARKING LOT","",""
"02/17/2018","20:08","218CR0004154","ACCIDENT","ACCIDENT","ARIZONA ST AND PARK ST","",""
"02/17/2018","20:26","218CR0004156","SUSPICIOUS ACTIVITY","SUSPICIOUS ACTIVITY","900 BLK S MONTANA","",""
"02/17/2018","20:34","218CR0004157","BUSINESS CHECK","BUSINESS CHECK","1370 HARRISON AVE","",""
"02/17/2018","20:57","218CR0004158","ACCIDENT","ACCIDENT","1713 GRAND","",""
"02/17/2018","21:06","218CR0004159","ASSIST OTHER AGENCY","ASSIST OTHER AGENCY","I15 MM 134 NB","",""
"02/17/2018","21:13","218CR0004160","TRAFFIC","TRAFFIC","CIVIC CENTER","",""
"02/17/2018","21:18","218CR0004161","ACCIDENT","ACCIDENT","I15 MM 122 NB","",""
"02/17/2018","21:51","218CR0004163","TRAFFIC","TRAFFIC","200 BLK S ARIZONA","",""
"02/17/2018","22:07","218CR0004164","JUVENILE RUNAWAY","JUVENILE RUNAWAY","************","",""
"02/17/2018","22:25","218CR0004165","DISTURBANCE","DISTURBANCE","1 HOLIDAY PARK DRIVE","",""
"02/17/2018","22:27","218CR0004166","ACCIDENT","NO LIABILITY INSURANCE IN EFF.","500 BLK N MONTANA AT","",""
"02/17/2018","23:00","218CR0004168","MEDICAL - EMERGENCY","MEDICAL - EMERGENCY","501 W GRANITE","",""
"02/17/2018","23:09","218CR0004170","SUSPICIOUS ACTIVITY","CRIMINAL CONTEMPT","1800 HARRISON/GLACIER BANK","ARREST(s) MADE",""
"02/17/2018","23:24","218CR0004171","ALL OTHER","ALL OTHER","1838 PHILLIPS","",""
"02/17/2018","23:33","218CR0004172","PROWLER","PROWLER","2032 WALL ST","",""
"02/17/2018","23:43","218CR0004173","DRUGS","POSSESS DRUG PARAPHERNALIA","TIMES BAR 2 E GALENA","ARREST(s) MADE",""
"02/18/2018","00:37","218CR0004177","BUSINESS CHECK","BUSINESS CHECK","531 S MONTANA","",""
"02/18/2018","00:39","218CR0004178","BUSINESS CHECK","BUSINESS CHECK","DEWEY BLVD AND HARRISON AVE","",""
"02/18/2018","00:39","218CR0004179","DISTURBANCE","DISTURBANCE","657 S COLORADO ST","",""
"02/18/2018","00:50","218CR0004180","MEDICAL - EMERGENCY","MEDICAL - EMERGENCY","155 W PACIFIC","",""
"02/18/2018","01:28","218CR0004181","MAN WITH A GUN","CCW WHILE UNDER INFLUENCE","1301 W PARK PROSPECTOR HALL","ARREST(s) MADE",""
"02/18/2018","01:48","218CR0004182","DISTURBANCE","DISTURBANCE","10 BLK N MAIN","",""
"02/18/2018","01:48","218CR0004183","ASSAULT","PFMA - REASONABLE APPREHENSION","1919 S ARIZONA","",""
"02/18/2018","01:51","218CR0004184","DISTURBANCE-NOISE","DISTURBANCE-NOISE","1612 SILVER BOW HOMES","",""
"02/18/2018","01:54","218CR0004185","ASSIST OTHER AGENCY","ASSIST OTHER AGENCY","I90 MM 211 EB","",""
"02/18/2018","02:06","218CR0004186","MAN WITH A GUN","MAN WITH A GUN","************","",""
"02/18/2018","03:49","218CR0004187","SUSPICIOUS ACTIVITY","SUSPICIOUS ACTIVITY","4040 PAXSON","",""
"02/18/2018","04:42","218CR0004188","ASSIST OTHER AGENCY","ASSIST OTHER AGENCY","I90 MM 181 WB","",""
"02/18/2018","04:49","218CR0004189","INFORMATION ONLY","INFORMATION ONLY","3425 JERRY CREEK ROAD","",""
"02/18/2018","05:34","218CR0004190","DISTURBANCE","DISTURBANCE","GALENA ST AND WASHINGTON ST","",""
"02/18/2018","06:04","218CR0004191","ALARM - FIRE","ALARM - FIRE","4040 PAXSON","",""
"02/18/2018","06:55","218CR0004192","ASSIST OTHER AGENCY","ASSIST OTHER AGENCY","ROCKER","",""
"02/18/2018","08:02","218CR0004193","DISTURBANCE","DISTURBANCE","518 S IDAHO","",""
"02/18/2018","08:12","218CR0004194","ASSIST OTHER AGENCY","ASSIST OTHER AGENCY","I90 MM 173 EB","",""
"02/18/2018","08:17","218CR0004195","HARASSMENT","HARASSMENT","3101 GOODWIN","",""
"02/18/2018","08:33","218CR0004196","ALARM - BURGLARY","ALARM - BURGLARY","************","",""
"02/18/2018","08:56","218CR0004197","CIVIL PAPER SERVICE","CIVIL PAPER SERVICE","315 S JACKSON","",""
"02/18/2018","08:58","218CR0004198","MEDICAL - EMERGENCY","MEDICAL - EMERGENCY","3251 NETTIE ST","",""
"02/18/2018","09:03","218CR0004199","CIVIL PAPER SERVICE","CIVIL PAPER SERVICE","209 S CRYSTAL ST","",""
"02/18/2018","09:11","218CR0004200","CIVIL PAPER SERVICE","CIVIL PAPER SERVICE","737 W PARK #2","",""
"02/18/2018","09:13","218CR0004201","SUSPICIOUS ACTIVITY","SUSPICIOUS ACTIVITY","MAJORS AND LOWELL","",""
"02/18/2018","09:26","218CR0004202","CIVIL PAPER SERVICE","CIVIL PAPER SERVICE","611 W IRON","",""
"02/18/2018","09:28","218CR0004203","RESTRAINING ORDER VIOLATION","VIOLATION OF PROTECTION ORDER","2501 PARROT","",""
"02/18/2018","10:17","218CR0004204","ACCIDENT","MAKE R TURN FROM WRONG LANE","3900 BLK HARRISON","",""
"02/18/2018","10:42","218CR0004205","ACCIDENT","ACCIDENT","531 S MONTANA","",""
"02/18/2018","10:43","218CR0004206","JUVENILE RUNAWAY","JUVENILE RUNAWAY","************","",""
"02/18/2018","10:58","218CR0004207","MEDICAL - EMERGENCY","MEDICAL - EMERGENCY","1816 TEXAS AVE","",""
"02/18/2018","11:40","218CR0004208","THEFT","THEFT FROM MOTOR VEHICLE","4655 HARRISON AVE","",""
"02/18/2018","12:17","218CR0004210","WELFARE CHECK","WELFARE CHECK","1125 S MAIN APT 212","",""
"02/18/2018","12:28","218CR0004211","WELFARE CHECK","WELFARE CHECK","45 TRINITY LOOP","",""
"02/18/2018","12:33","218CR0004212","MEDICAL - ASSIST","MEDICAL - ASSIST","************","",""
"02/18/2018","12:37","218CR0004213","ASSAULT","AGGRAVATED ASSAULT","402 E BROADWAY","",""
"02/18/2018","12:43","218CR0004214","ACCIDENT","ACCIDENT","1259 E SECOND","",""
"02/18/2018","12:44","218CR0004215","MEDICAL - EMERGENCY","MEDICAL - EMERGENCY","921 W WOOLMAN","",""
"02/18/2018","12:58","218CR0004216","ASSIST OTHER AGENCY","ASSIST OTHER AGENCY","I90 MM 216 EB","",""
"02/18/2018","13:08","218CR0004217","BUSINESS CHECK","BUSINESS CHECK","1915 DEWEY","",""
"02/18/2018","13:15","218CR0004218","SUSPICIOUS ACTIVITY","SUSPICIOUS ACTIVITY","BROADWAY AND MONTANA","",""
"02/18/2018","13:21","218CR0004219","UNWANTED PERSON","VIOLATION OF PROTECTION ORDER","1911 PORTER","",""
"02/18/2018","13:44","218CR0004220","CITIZEN AID","CITIZEN AID","725 7TH STREET","",""
"02/18/2018","13:50","218CR0004221","ASSIST OTHER AGENCY","ASSIST OTHER AGENCY","I15 MM 118 NB","",""
"02/18/2018","14:18","218CR0004222","ASSIST OTHER AGENCY","ASSIST OTHER AGENCY","I15 MM 116 SB","",""
"02/18/2018","14:43","218CR0004223","CITIZEN AID","CITIZEN AID","400 S CLARK","",""
"02/18/2018","14:46","218CR0004224","ACCIDENT","ACCIDENT","1700 BLK FOUR MILE ROAD","",""
"02/18/2018","14:46","218CR0004225","SNOW REMOVAL COMPLAINT","SNOW REMOVAL COMPLAINT","1900 BLK GAYLORD","",""
"02/18/2018","14:57","218CR0004227","HIT AND RUN","HIT AND RUN","1801 STUART AVE","",""
"02/18/2018","15:12","218CR0004228","WELFARE CHECK","WELFARE CHECK","ORO FINO GULCH RD","",""
"02/18/2018","15:21","218CR0004229","THEFT","THEFT FROM MOTOR VEHICLE","1007 OREGON","",""
"02/18/2018","15:27","218CR0004230","SUSPICIOUS ACTIVITY","SUSPICIOUS ACTIVITY","531 S MONTANA","",""
"02/18/2018","15:47","218CR0004231","BUSINESS CHECK","BUSINESS CHECK","PARKING GARAGE","",""
"02/18/2018","16:16","218CR0004232","THEFT","THEFT","304 N MAIN ST","",""
"02/18/2018","16:28","218CR0004233","FRAUD","THEFT, ALL OTHERS","1509 SCHLEY","",""
"02/18/2018","16:47","218CR0004234","ALL OTHER","ALL OTHER","810 1/2 W MERCURY ST","",""
"02/18/2018","16:52","218CR0004235","ACCIDENT","ACCIDENT","EXCELSIOR // IRON STREET","",""
"02/18/2018","17:08","218CR0004236","MEDICAL - EMERGENCY","MEDICAL - EMERGENCY","1618 BLK HARRISON AVE","",""
"02/18/2018","17:32","218CR0004237","PARKING COMPLAINT","PARKING COMPLAINT","600 BLK S WASHINGTON W ALLEY","",""
"02/18/2018","17:51","218CR0004238","ACCIDENT","HIT AND RUN, HIGHWAY FIXTURES","COBBAN AND HARRISON AVE","",""
"02/18/2018","18:04","218CR0004239","BURGLARY","CRIMINAL CONTEMPT","707 N WYOMING","ARREST(s) MADE",""
"02/18/2018","18:26","218CR0004240","HARASSMENT","HARASSMENT","135 W IRON ST","",""
"02/18/2018","18:48","218CR0004241","DISTURBANCE","ASSAULT WITH WEAPON","400 S CLARK ST","ARREST(s) MADE",""
"02/18/2018","19:01","218CR0004242","DISTURBANCE","DISTURBANCE","1228 RACOON WAY","",""
"02/18/2018","19:16","218CR0004243","ALARM - BURGLARY","ALARM - BURGLARY","************","",""
"02/18/2018","19:17","218CR0004244","UNWANTED PERSON","UNWANTED PERSON","************","",""
"02/18/2018","20:06","218CR0004245","ANIMAL COMPLAINT","ANIMAL COMPLAINT","COBBAN AND WARREN","",""
"02/18/2018","20:54","218CR0004246","ASSIST OTHER AGENCY","ASSIST OTHER AGENCY","I90 EBND MM214","",""
"02/18/2018","21:11","218CR0004247","MEDICAL - EMERGENCY","MEDICAL - EMERGENCY","3701 ELIZABETH WARREN","",""
"02/18/2018","21:12","218CR0004248","CITIZEN AID","CITIZEN AID","ALUMINUM ST AND MONTANA ST","",""
"02/18/2018","21:26","218CR0004249","DISTURBANCE","DISTURBANCE","330 W DALY","",""
"02/18/2018","22:27","218CR0004250","ASSIST OTHER AGENCY","ASSIST OTHER AGENCY","I90 MM 217 EB","",""
"02/18/2018","22:35","218CR0004251","MEDICAL - EMERGENCY","MEDICAL - EMERGENCY","I90 MM 211 EB","",""
"02/18/2018","22:55","218CR0004252","ASSIST OTHER AGENCY","ASSIST OTHER AGENCY","I90 MM 215 WB","",""
"02/18/2018","23:01","218CR0004253","ALL OTHER","ALL OTHER","225 N ALASKA","",""
"02/18/2018","23:05","218CR0004254","UNWANTED PERSON","UNWANTED PERSON","************","",""
"02/18/2018","23:12","218CR0004255","DISTURBANCE","DISTURBANCE","1499 B ST","",""
"02/18/2018","23:53","218CR0004257","SUSPICIOUS ACTIVITY","SUSPICIOUS ACTIVITY","1400 E SECOND CONTINENTAL STEE","",""
"02/18/2018","23:57","218CR0004258","THEFT","THEFT","229 S WASHINGTON","",""
"02/19/2018","00:20","218CR0004259","SUSPICIOUS ACTIVITY","SUSPICIOUS ACTIVITY","1119 CALIFORNIA ST","",""
"02/19/2018","00:28","218CR0004260","SUSPICIOUS ACTIVITY","SUSPICIOUS ACTIVITY","1050 S MONTANA WEBSTER COMPLEX","",""
"02/19/2018","00:41","218CR0004262","UNKNOWN PROBLEM","UNKNOWN PROBLEM","59 E BENNETT","",""
"02/19/2018","00:59","218CR0004263","BUSINESS CHECK","BUSINESS CHECK","1370 HARRISON TOWN PUMP","",""
"02/19/2018","02:35","218CR0004264","THEFT","THEFT","1527 1/2 DELAWARE","",""
"02/19/2018","05:20","218CR0004265","ATL","ATL","901 S WASHINGTON #14","",""
"02/19/2018","06:29","218CR0004266","DISTURBANCE","DISTURBANCE","3901 HARRISON AVE","",""
"02/19/2018","06:30","218CR0004267","CITIZEN AID","CITIZEN AID","INDIANA AND ALABAMA","",""
"02/19/2018","07:04","218CR0004268","SUSPICIOUS ACTIVITY","SUSPICIOUS ACTIVITY","MEADOWLARK AND MOUNT HIGHLAND","",""
"02/19/2018","07:17","218CR0004269","ASSIST OTHER AGENCY","ASSIST OTHER AGENCY","I90 MM 215","",""
"02/19/2018","08:11","218CR0004270","ALARM - BURGLARY","ALARM - BURGLARY","************","",""
"02/19/2018","08:51","218CR0004271","FOUND PROPERTY","FOUND PROPERTY","************","",""
 

BSB police report ending February 16, 2018

"02/15/2018","00:08","218CR0003895","ALL OTHER","ALL OTHER","400 S CLARK ST","",""
"02/15/2018","00:12","218CR0003896","SUSPICIOUS ACTIVITY","SUSPICIOUS ACTIVITY","THIRD ST AND WYOMING","",""
"02/15/2018","00:30","218CR0003897","T/S","T/S @ PARKING GARAGE","PARKING GARAGE","",""
"02/15/2018","00:49","218CR0003898","ALARM - FIRE","ALARM - FIRE","300 MOUNT HIGHLAND DR","",""
"02/15/2018","01:37","218CR0003899","STOLEN VEHICLE","STOLEN VEHICLE","530 S IDAHO","",""
"02/15/2018","01:55","218CR0003900","SUSPICIOUS ACTIVITY","SUSPICIOUS ACTIVITY","DEWEY AND HARRISON","",""
"02/15/2018","02:22","218CR0003901","SUSPICIOUS ACTIVITY","SUSPICIOUS ACTIVITY","CALIFORNIA AND FRONT ST","",""
"02/15/2018","02:33","218CR0003902","SUSPICIOUS ACTIVITY","SUSPICIOUS ACTIVITY","BROADWAY STORAGE UNITS","",""
"02/15/2018","03:09","218CR0003903","MEDICAL - EMERGENCY","MEDICAL - EMERGENCY","1828 ADAMS","",""
"02/15/2018","03:32","218CR0003904","SUSPICIOUS ACTIVITY","CRIMINAL CONTEMPT","225 N ALASKA","ARREST(s) MADE",""
"02/15/2018","05:41","218CR0003905","ALARM - BURGLARY","ALARM - BURGLARY","************","",""
"02/15/2018","06:47","218CR0003906","WELFARE CHECK","WELFARE CHECK","623 VERNON HEIGHTS","",""
"02/15/2018","06:49","218CR0003907","DISTURBANCE","DISTURBANCE","220 N WYOMING RM 220","",""
"02/15/2018","07:22","218CR0003908","MEDICAL - EMERGENCY","MEDICAL - EMERGENCY","4055 PAXSON AVE","",""
"02/15/2018","08:03","218CR0003910","THEFT","THEFT","50 W BROADWAY APT 401","",""
"02/15/2018","08:24","218CR0003911","LED BUSINESS","LED BUSINESS","225 N ALASKA","",""
"02/15/2018","08:49","218CR0003912","DETENTION BUSINESS","DETENTION BUSINESS","************","",""
"02/15/2018","09:06","218CR0003913","ATL","ATL","3400 BLK CONTINENTAL DR","",""
"02/15/2018","09:09","218CR0003914","DISTURBANCE","DISTURBANCE","665 S WASHINGTON","",""
"02/15/2018","09:23","218CR0003915","WELFARE CHECK","WELFARE CHECK","207 HOBSON # 7","",""
"02/15/2018","09:31","218CR0003916","THEFT","THEFT","1036 S UTAH AVE","",""
"02/15/2018","10:04","218CR0003917","WELFARE CHECK","WELFARE CHECK","1023 S UTAH","",""
"02/15/2018","10:22","218CR0003918","MEDICAL - EMERGENCY","MEDICAL - EMERGENCY","820 CALEDONIA ST","",""
"02/15/2018","10:25","218CR0003919","UNWANTED PERSON","UNWANTED PERSON","************","",""
"02/15/2018","10:26","218CR0003920","ACCIDENT","CARELESS DRIVING","50 W BROADWAY ST","",""
"02/15/2018","10:33","218CR0003921","THEFT","THEFT, SHOPLIFT","2801 HARRISON ZIP TRIP","",""
"02/15/2018","10:56","218CR0003922","RESTRAINING ORDER VIOLATION","RESTRAINING ORDER VIOLATION","************","",""
"02/15/2018","10:58","218CR0003923","SUSPICIOUS ACTIVITY","SUSPICIOUS ACTIVITY","S EXCELSIOR AND ROCKER RD","",""
"02/15/2018","11:05","218CR0003924","CITIZEN AID","CITIZEN AID","225 N ALASKA","",""
"02/15/2018","11:21","218CR0003925","HARASSMENT","HARASSMENT","775 W GOLD ST","",""
"02/15/2018","12:19","218CR0003926","THEFT","THEFT LOST OR MISLAID PROPERTY","807 S MONTANA","",""
"02/15/2018","12:24","218CR0003927","ASSAULT","ASSAULT WITH WEAPON","106 W BROADWAY","ARREST(s) MADE",""
"02/15/2018","12:29","218CR0003928","ALL OTHER","ALL OTHER","400 S CLARK ST","",""
"02/15/2018","12:42","218CR0003930","ASSIST OTHER AGENCY","ASSIST OTHER AGENCY","62 W BROADWAY","",""
"02/15/2018","13:16","218CR0003931","WELFARE CHECK","WELFARE CHECK","3100 BLK HARRISON","",""
"02/15/2018","13:39","218CR0003933","FRAUD","FRAUD","1515 OREGON # 609","",""
"02/15/2018","13:42","218CR0003934","ASSIST OTHER AGENCY","ASSIST OTHER AGENCY","13 SUNVIEW TERRACE","",""
"02/15/2018","13:51","218CR0003936","CIVIL PAPER SERVICE","CIVIL PAPER SERVICE","201 HOBSON # 9","",""
"02/15/2018","14:16","218CR0003937","T/S","T/S","MOUNT HIGHLAND DR AND BARTLETT","",""
"02/15/2018","14:45","218CR0003938","T/S","T/S @ MONTANA AND GOLD","MONTANA AND GOLD","",""
"02/15/2018","14:53","218CR0003939","DISTURBANCE","DISTURBANCE","802 MARYLAND","",""
"02/15/2018","15:14","218CR0003940","CIVIL STANDBY","CIVIL STANDBY","225 N ALASKA","",""
"02/15/2018","15:15","218CR0003942","MEDICAL - EMERGENCY","MEDICAL - EMERGENCY","1 W PARK ST","",""
"02/15/2018","15:16","218CR0003941","T/S","T/S @ MERCURY AND MAIN","MERCURY AND MAIN","",""
"02/15/2018","15:29","218CR0003943","MEDICAL - EMERGENCY","MEDICAL - EMERGENCY","614 W PARK ST APT B","",""
"02/15/2018","15:39","218CR0003944","INFORMATION ONLY","INFORMATION ONLY","912 LONGFELLOW ST","",""
"02/15/2018","15:44","218CR0003945","THEFT","THEFT, SHOPLIFT","2324 S MONTANA","",""
"02/15/2018","15:52","218CR0003946","SUICIDE ATTEMPT/THREAT","SUICIDE ATTEMPT/THREAT","************","",""
"02/15/2018","15:54","218CR0003947","MEDICAL - EMERGENCY","MEDICAL - EMERGENCY","1736 LONGFELLOW #6","",""
"02/15/2018","16:49","218CR0003949","INTOXICATED PERSON","INTOXICATED PERSON","3700 HARRISON AVE","",""
"02/15/2018","16:50","218CR0003950","T/S","T/S","AMHERST AND BANKS","",""
"02/15/2018","16:50","218CR0003948","T/S","T/S @ 1300 BLK HARRISON AVE","1300 BLK HARRISON AVE","",""
"02/15/2018","16:57","218CR0003951","UNKNOWN PROBLEM","RESISTING ARREST","304 N MAIN ST","ARREST(s) MADE",""
"02/15/2018","17:03","218CR0003952","TRAFFIC HAZARD","TRAFFIC HAZARD","MONTANA AND PARK ST","",""
"02/15/2018","17:05","218CR0003953","THEFT","THEFT, SHOPLIFT","3901 HARRISON AVE","",""
"02/15/2018","17:23","218CR0003954","ATL","ATL","4701 HARRISON AVE","",""
"02/15/2018","17:32","218CR0003955","WANTED PERSON","WANTED PERSON","************","",""
"02/15/2018","17:33","218CR0003956","T/S","T/S @ ","","",""
"02/15/2018","17:36","218CR0003957","MEDICAL - EMERGENCY","CRIMINAL MISCHIEF","1224 FARRELL","",""
"02/15/2018","18:11","218CR0003958","THEFT","THEFT","734 COLORADO","",""
"02/15/2018","18:15","218CR0003959","WELFARE CHECK","WELFARE CHECK","2523 PRINCETON","",""
"02/15/2018","18:30","218CR0003960","SUICIDE ATTEMPT/THREAT","SUICIDE ATTEMPT/THREAT","************","",""
"02/15/2018","18:52","218CR0003961","ATL","ATL","MONTANA ST AND PLATINUM ST","",""
"02/15/2018","19:14","218CR0003962","DRUGS","DRUGS","************","",""
"02/15/2018","19:21","218CR0003963","CITIZEN AID","CITIZEN AID","400 S CLARK ST","",""
"02/15/2018","19:24","218CR0003964","ATL","ATL","","",""
"02/15/2018","19:42","218CR0003965","TRAFFIC","TRAFFIC","1200 BLK W GOLD ST","",""
"02/15/2018","19:42","218CR0003966","PRIVACY IN COMMUNICATIONS","PRIVACY IN COMMUNICATIONS","************","",""
"02/15/2018","19:49","218CR0003967","WANTED PERSON","WANTED PERSON","************","",""
"02/15/2018","20:20","218CR0003968","T/S","T/S @ CONTINENTAL AND QUINCY","CONTINENTAL AND QUINCY","",""
"02/15/2018","20:31","218CR0003969","T/S","T/S @ CIVIC CENTER PARKING LOT","CIVIC CENTER PARKING LOT","",""
"02/15/2018","20:39","218CR0003970","MEDICAL - EMERGENCY","MEDICAL - EMERGENCY","1224 FARRELL ST","",""
"02/15/2018","20:52","218CR0003971","T/S","T/S @ 1100 BLK S MONTANA ST","1100 BLK S MONTANA ST","",""
"02/15/2018","21:40","218CR0003972","DISTURBANCE-NOISE","DISTURBANCE-NOISE","1406 SILVER BOW HOMES","",""
"02/15/2018","21:43","218CR0003973","ACCIDENT","ACCIDENT","2500 MASSACHUSETTS AVE","",""
"02/15/2018","21:57","218CR0003974","T/S","SPEEDING","PARK ST AND MAIN ST","",""
"02/15/2018","22:25","218CR0003975","UNWANTED PERSON","UNWANTED PERSON","************","",""
"02/15/2018","22:28","218CR0003976","T/S","T/S @ FARRELL AND TEXAS AVE","FARRELL AND TEXAS AVE","",""
"02/15/2018","22:48","218CR0003978","T/S","T/S","1600 BLK DEWEY","",""
"02/15/2018","22:48","218CR0003977","FIRE- GAS ODOR","FIRE- GAS ODOR","303 SILVERBOW HOMES","",""
"02/15/2018","22:55","218CR0003979","T/S","T/S @ MONTANA AND GOLD","MONTANA AND GOLD","",""
"02/15/2018","22:56","218CR0003980","MEDICAL - EMERGENCY","MEDICAL - EMERGENCY","4675 S ARIZONA","",""
"02/15/2018","23:01","218CR0003981","SUSPICIOUS ACTIVITY","SUSPICIOUS ACTIVITY","3525 HARRISON AVE","",""
"02/15/2018","23:03","218CR0003982","T/S","T/S","LONGFELLOW ST AND HARRISON AVE","",""
"02/15/2018","23:05","218CR0003983","T/S","T/S","SECOND AND MARYLAND","",""
"02/15/2018","23:22","218CR0003984","SUSPICIOUS ACTIVITY","SUSPICIOUS ACTIVITY","3400 BLK HILL","",""
"02/15/2018","23:39","218CR0003985","SUSPICIOUS ACTIVITY","SUSPICIOUS ACTIVITY","MT CON MINE PARKING LOT","",""
"02/15/2018","23:47","218CR0003986","SUSPICIOUS ACTIVITY","POSSESSION OF DANGEROUS DRUGS","1717 YALE AVE","",""
"02/16/2018","00:44","218CR0003987","CITIZEN AID","CITIZEN AID","HARRISON AND OTTAWA","",""
"02/16/2018","01:03","218CR0003988","T/S","T/S","PARK AND DAKOTA","",""
"02/16/2018","01:13","218CR0003989","T/S","T/S","GEORGE ST AND MONTANA ST","",""
"02/16/2018","02:02","218CR0003990","T/S","DUI - (REFUSAL)","PARK AND ALABAMA","ARREST(s) MADE",""
"02/16/2018","02:07","218CR0003991","T/S","T/S @ BROADWAY AND ALABAMA","BROADWAY AND ALABAMA","",""
"02/16/2018","03:16","218CR0003992","ATL","ATL","2909 CARTER ST","",""
"02/16/2018","03:22","218CR0003993","HARASSMENT","HARASSMENT","2325 COBBAN","",""
"02/16/2018","05:12","218CR0003994","MEDICAL - EMERGENCY","MEDICAL - EMERGENCY","2700 HARVARD AVE","",""
"02/16/2018","05:49","218CR0003995","THEFT","THEFT","1408 SCHLEY","",""
"02/16/2018","07:49","218CR0003997","CIVIL PAPER SERVICE","CIVIL PAPER SERVICE","62 W BROADWAY","",""
 

BSB police report ending February 15, 2018

"02/14/2018","00:00","218CR0003810","BUSINESS CHECK","BUSINESS CHECK","1370 HARRISON TOWN PUMP","",""
"02/14/2018","00:05","218CR0003811","BUSINESS CHECK","BUSINESS CHECK","2711 HARRISON TOWN PUMP","",""
"02/14/2018","00:16","218CR0003812","SUSPICIOUS ACTIVITY","SUSPICIOUS ACTIVITY","3901 HARRISON AVE","",""
"02/14/2018","00:33","218CR0003813","SUSPICIOUS ACTIVITY","SUSPICIOUS ACTIVITY","WALNUT AND CAROLINA","",""
"02/14/2018","00:55","218CR0003814","ALL OTHER","ALL OTHER","2929 HARRISON AVE SUPER 8 MOTE","",""
"02/14/2018","01:10","218CR0003815","DISTURBANCE-NOISE","DISTURBANCE-NOISE","610 SILVER BOW HOMES","",""
"02/14/2018","01:35","218CR0003816","BUSINESS CHECK","BUSINESS CHECK","1370 HARRISON TOWN PUMP","",""
"02/14/2018","01:45","218CR0003817","SUSPICIOUS ACTIVITY","SUSPICIOUS ACTIVITY","3639 HARRISON CAR QUEST","",""
"02/14/2018","02:45","218CR0003818","UNWANTED PERSON","UNWANTED PERSON","************","",""
"02/14/2018","03:32","218CR0003819","SUSPICIOUS ACTIVITY","SUSPICIOUS ACTIVITY","1730 LONGFELLOW STOR A WAY","",""
"02/14/2018","04:50","218CR0003820","ACCIDENT","ACCIDENT","I90 MM 213 WB","",""
"02/14/2018","05:42","218CR0003821","SUSPICIOUS ACTIVITY","SUSPICIOUS ACTIVITY","BROADWAY MINI STORAGE 333 E BR","",""
"02/14/2018","05:43","218CR0003822","T/S","T/S @ 2544 HARRISON LISACS TRI STOP","2544 HARRISON LISACS TRI STOP","",""
"02/14/2018","07:47","218CR0003823","TRAFFIC","TRAFFIC","WARREN AVE AND SAGE","",""
"02/14/2018","07:50","218CR0003824","CIVIL PAPER SERVICE","CIVIL PAPER SERVICE","2728 PINE","",""
"02/14/2018","08:14","218CR0003825","CIVIL PAPER SERVICE","CIVIL PAPER SERVICE","910 EVANS APT C5","",""
"02/14/2018","08:24","218CR0003826","SUSPICIOUS ACTIVITY","SUSPICIOUS ACTIVITY","GEORGE AND THOMAS","",""
"02/14/2018","09:17","218CR0003827","DETENTION BUSINESS","DETENTION BUSINESS","************","",""
"02/14/2018","09:27","218CR0003828","CIVIL PAPER SERVICE","CIVIL PAPER SERVICE","123 W BROADWAY APT E","",""
"02/14/2018","09:38","218CR0003829","CIVIL PAPER SERVICE","CIVIL PAPER SERVICE","1911 PORTER","",""
"02/14/2018","09:39","218CR0003830","CIVIL PAPER SERVICE","CIVIL PAPER SERVICE","715 ZARELDA","",""
"02/14/2018","09:46","218CR0003831","T/S","T/S @ PLATINUM AND IDAHO","PLATINUM AND IDAHO","",""
"02/14/2018","09:49","218CR0003832","T/S","T/S","848 W PARK ST","",""
"02/14/2018","10:22","218CR0003833","ASSIST OTHER AGENCY","ASSIST OTHER AGENCY","I90 EB MM 224","",""
"02/14/2018","10:27","218CR0003834","VANDALISM/CRIMINAL MISCHIEF","CRIMINAL MISCHIEF","4852 S WARREN AVE","",""
"02/14/2018","10:39","218CR0003835","SUICIDE ATTEMPT/THREAT","SUICIDE ATTEMPT/THREAT","************","",""
"02/14/2018","10:54","218CR0003837","SUSPICIOUS ACTIVITY","SUSPICIOUS ACTIVITY","220 CURTIS","",""
"02/14/2018","10:56","218CR0003836","WANTED PERSON","WANTED PERSON","************","",""
"02/14/2018","11:25","218CR0003838","DETENTION BUSINESS","DETENTION BUSINESS","************","",""
"02/14/2018","11:53","218CR0003839","JUVENILE MISC","JUVENILE MISC","************","",""
"02/14/2018","12:04","218CR0003840","SUSPICIOUS ACTIVITY","SUSPICIOUS ACTIVITY","BEEF TRAIL RD","",""
"02/14/2018","12:05","218CR0003841","ASSIST OTHER AGENCY","ASSIST OTHER AGENCY","7 E CENTER","",""
"02/14/2018","12:24","218CR0003842","RESTRAINING ORDER VIOLATION","RESTRAINING ORDER VIOLATION","************","",""
"02/14/2018","12:44","218CR0003843","HIT AND RUN","HIT AND RUN, UNATTENDED VEHICL","3901 HARRISON AVE","",""
"02/14/2018","13:31","218CR0003844","THEFT","THEFT","50 W BROADWAY #401","",""
"02/14/2018","13:45","218CR0003845","T/S","T/S @ LEXINGTON AND DEWEY","LEXINGTON AND DEWEY","",""
"02/14/2018","13:59","218CR0003846","PARKING COMPLAINT","PARKING COMPLAINT","1924 PHILLIPS AVE","",""
"02/14/2018","14:10","218CR0003847","ACCIDENT","ACCIDENT","MERCURY ST AND MONTANA ST","",""
"02/14/2018","14:14","218CR0003848","HIT AND RUN","HIT AND RUN","1119 W BROADWAY","",""
"02/14/2018","14:19","218CR0003849","MEDICAL - ASSIST","MEDICAL - ASSIST","************","",""
"02/14/2018","14:53","218CR0003851","INTOXICATED PERSON","INTOXICATED PERSON","103 TROTTER DR","",""
"02/14/2018","15:10","218CR0003852","THEFT","THEFT","225 N ALASKA ST","",""
"02/14/2018","15:21","218CR0003853","THEFT","THEFT","709 S UTAH","",""
"02/14/2018","15:33","218CR0003854","FIRE- GAS ODOR","FIRE- GAS ODOR","3100 HARRISON AVE","",""
"02/14/2018","15:42","218CR0003855","ASSIST OTHER AGENCY","ASSIST OTHER AGENCY","405 W GRANITE","",""
"02/14/2018","16:00","218CR0003856","SUSPICIOUS ACTIVITY","SUSPICIOUS ACTIVITY","533 S DAKOTA","",""
"02/14/2018","16:11","218CR0003857","WELFARE CHECK","WELFARE CHECK","1800 PHILLIPS AVE","",""
"02/14/2018","16:18","218CR0003858","INFORMATION ONLY","INFORMATION ONLY","225 N ALASKA","",""
"02/14/2018","16:32","218CR0003859","FORGERY","FORGERY/COUNTERFEIT","3901 HARRISON AVE WALMART","",""
"02/14/2018","16:32","218CR0003860","FORGERY","FORGERY","","",""
"02/14/2018","16:39","218CR0003861","DISTURBANCE","DISTURBANCE","205 S ARIZONA","",""
"02/14/2018","16:45","218CR0003862","T/S","T/S @ 1900 BLK HARRISON AVE","1900 BLK HARRISON AVE","",""
"02/14/2018","16:51","218CR0003863","ASSIST OTHER AGENCY","ASSIST OTHER AGENCY","CONTINENTAL DR AND HWY 2","",""
"02/14/2018","17:13","218CR0003864","T/S","T/S","OREGON AND COBBAN","",""
"02/14/2018","17:14","218CR0003865","LOST OR STOLEN PROPERTY","LOST OR STOLEN PROPERTY","5100 S WARREN # 56","",""
"02/14/2018","17:29","218CR0003866","CIVIL PAPER SERVICE","CIVIL PAPER SERVICE","2210 OTTAWA","",""
"02/14/2018","17:36","218CR0003867","T/S","T/S @ 531 S MONTANA","531 S MONTANA","",""
"02/14/2018","17:54","218CR0003868","CIVIL PAPER SERVICE","CIVIL PAPER SERVICE","314 GRANITE MNT ROAD","",""
"02/14/2018","18:08","218CR0003869","SUSPICIOUS ACTIVITY","SUSPICIOUS ACTIVITY","2711 HARRISON AVE","",""
"02/14/2018","18:19","218CR0003870","ALARM - BURGLARY","ALARM - BURGLARY","************","",""
"02/14/2018","18:30","218CR0003871","MEDICAL - EMERGENCY","MEDICAL - EMERGENCY","304 N MAIN","",""
"02/14/2018","18:35","218CR0003872","THEFT","THEFT","2500 MASSACHUSETTS AVE","",""
"02/14/2018","18:36","218CR0003873","HIT AND RUN","HIT AND RUN","2122 ARGYLE ST","",""
"02/14/2018","18:56","218CR0003874","SUSPICIOUS ACTIVITY","SUSPICIOUS ACTIVITY","705 S ARIZONA","",""
"02/14/2018","19:22","218CR0003875","SUICIDE ATTEMPT/THREAT","SUICIDE ATTEMPT/THREAT","************","",""
"02/14/2018","19:49","218CR0003876","ASSIST OTHER AGENCY","OUT OF JURISDICTION - FELONY","1258 E FARRELL","ARREST(s) MADE",""
"02/14/2018","19:49","218CR0003877","JUVENILE MISC","JUVENILE MISC","************","",""
"02/14/2018","20:02","218CR0003878","T/S","T/S","PARKING GARAGE SITE PARK ST","",""
"02/14/2018","20:04","218CR0003879","T/S","T/S @ MAIN ST AND PLATINUM ST","MAIN ST AND PLATINUM ST","",""
"02/14/2018","20:07","218CR0003880","MEDICAL - ASSIST","MEDICAL - ASSIST","************","",""
"02/14/2018","20:09","218CR0003881","SUSPICIOUS ACTIVITY","SUSPICIOUS ACTIVITY","133 W PARK ST","",""
"02/14/2018","20:18","218CR0003882","ANIMAL COMPLAINT","ANIMAL COMPLAINT","131 E DALY ST","",""
"02/14/2018","20:44","218CR0003883","ACCIDENT","ACCIDENT","IRON ST AND MONTANA ST","",""
"02/14/2018","21:24","218CR0003884","ASSIST OTHER AGENCY","POSSESSION OF DANGEROUS DRUGS","1631 ELM ST","ARREST(s) MADE",""
"02/14/2018","22:20","218CR0003885","T/S","NO LIABILITY INSURANCE IN EFF.","1040 S MONTANA ST","",""
"02/14/2018","22:36","218CR0003886","FIRE - OTHER","FIRE - OTHER","639 1/2 S IDAHO","",""
"02/14/2018","22:42","218CR0003887","HIT AND RUN","HIT AND RUN","3901 HARRISON AVE","",""
"02/14/2018","22:57","218CR0003888","ANIMAL COMPLAINT","ANIMAL COMPLAINT","131 E DALY","",""
"02/14/2018","22:58","218CR0003889","T/S","T/S","FLORAL BLVD AND PORTER","",""
"02/14/2018","23:11","218CR0003890","MEDICAL - EMERGENCY","MEDICAL - EMERGENCY","721 HOBSON #4","",""
"02/14/2018","23:14","218CR0003891","T/S","T/S","WASHINGTON ST AND PLATINUM ST","",""
"02/14/2018","23:20","218CR0003892","T/S","T/S","HOLMES AND BUSCH","",""
"02/14/2018","23:44","218CR0003893","T/S","T/S","PARK AND MT","",""
"02/14/2018","23:58","218CR0003894","T/S","T/S @ SHEILDS AND 2ND","SHEILDS AND 2ND","",""
"02/15/2018","00:08","218CR0003895","ALL OTHER","ALL OTHER","400 S CLARK ST","",""
"02/15/2018","00:12","218CR0003896","SUSPICIOUS ACTIVITY","SUSPICIOUS ACTIVITY","THIRD ST AND WYOMING","",""
"02/15/2018","00:30","218CR0003897","T/S","T/S @ PARKING GARAGE","PARKING GARAGE","",""
"02/15/2018","00:49","218CR0003898","ALARM - FIRE","ALARM - FIRE","300 MOUNT HIGHLAND DR","",""
"02/15/2018","01:37","218CR0003899","STOLEN VEHICLE","STOLEN VEHICLE","530 S IDAHO","",""
"02/15/2018","01:55","218CR0003900","SUSPICIOUS ACTIVITY","SUSPICIOUS ACTIVITY","DEWEY AND HARRISON","",""
"02/15/2018","02:22","218CR0003901","SUSPICIOUS ACTIVITY","SUSPICIOUS ACTIVITY","CALIFORNIA AND FRONT ST","",""
"02/15/2018","02:33","218CR0003902","SUSPICIOUS ACTIVITY","SUSPICIOUS ACTIVITY","BROADWAY STORAGE UNITS","",""
"02/15/2018","03:09","218CR0003903","MEDICAL - EMERGENCY","MEDICAL - EMERGENCY","1828 ADAMS","",""
"02/15/2018","03:32","218CR0003904","SUSPICIOUS ACTIVITY","CRIMINAL CONTEMPT","225 N ALASKA","ARREST(s) MADE",""
"02/15/2018","05:41","218CR0003905","ALARM - BURGLARY","ALARM - BURGLARY","************","",""
"02/15/2018","06:49","218CR0003907","DISTURBANCE","DISTURBANCE","220 N WYOMING RM 220","",""
 

Subcategories

Tuesday the 24th. Affiliate Marketing.
Copyright 2012

©